M I D A S
Marine Information and Data Acquisition System
Tripno 2038 of the Zeeleeuw from 2011-01-31 06:45:32 to 2011-01-31 17:56:45
Back to CruiseResearch ActivitiesStationsMapUnderway DataData graphs

EquipmentUnitsComment
TimeDGPSUTC
LatitudeDGPSDM.mWGS84
LongitudeDGPSDM.mWGS84
TemperatureSBE03/SBE38deg celciusITS90
ConductivitySBE21S/mITS90
SalinitySBE21 Practical Salinity Units
ChlorophylAChelsea fluorimeterg/lCalibrated in Aceton
Missing or incorrect values are displayed as -999
Sea surface data collected by the RV Zeeleeuw from 2011-01-31 06:48:14 to 2011-01-31 18:01:56
                                                                                    Next 1000 lines
Time Latitude Longitude Temperature Conductivity Salinity ChlorophylA
2011-01-31 06:48:24 51°13.66 2°55.954 11.3888 0.064538 0.346454 -0.269263
2011-01-31 06:48:29 51°13.66 2°55.951 11.4805 0.064538 0.346454 -0.269263
2011-01-31 06:48:34 51°13.661 2°55.947 11.526 0.064538 0.346454 -0.269263
2011-01-31 06:48:39 51°13.662 2°55.943 11.562 0.064538 0.346465 -0.269263
2011-01-31 06:48:45 51°13.664 2°55.936 11.5914 0.064538 0.346471 -0.234439
2011-01-31 06:48:51 51°13.665 2°55.929 11.538 0.064538 0.346476 -0.269263
2011-01-31 06:48:56 51°13.666 2°55.922 11.5269 0.064538 0.346476 -0.269263
2011-01-31 06:49:02 51°13.668 2°55.913 11.575 0.064538 0.346476 -0.269263
2011-01-31 06:49:08 51°13.67 2°55.904 11.5852 0.064538 0.346482 -0.304087
2011-01-31 06:49:13 51°13.671 2°55.896 11.5675 0.064538 0.346476 -0.234439
2011-01-31 06:49:17 51°13.672 2°55.889 11.569 0.064538 0.346482 -0.234439
2011-01-31 06:49:23 51°13.674 2°55.877 11.6306 0.064538 0.346482 -0.234439
2011-01-31 06:49:28 51°13.675 2°55.868 11.634 0.064538 0.346482 -0.234439
2011-01-31 06:49:33 51°13.677 2°55.859 11.6302 0.064538 0.346482 -0.234439
2011-01-31 06:49:38 51°13.678 2°55.849 11.6277 0.064538 0.346482 -0.269263
2011-01-31 06:49:43 51°13.679 2°55.84 11.6291 0.064538 0.346487 -0.234439
2011-01-31 06:49:48 51°13.68 2°55.831 11.631 0.064538 0.346487 -0.269263
2011-01-31 06:49:53 51°13.681 2°55.822 11.6342 0.064538 0.346493 -0.269263
2011-01-31 06:49:58 51°13.682 2°55.814 11.6319 0.064538 0.346493 -0.269263
2011-01-31 06:50:03 51°13.683 2°55.805 11.6281 0.064538 0.346493 -0.269263
2011-01-31 06:50:08 51°13.684 2°55.797 11.616 0.064538 0.346498 -0.234439
2011-01-31 06:50:13 51°13.685 2°55.789 11.6209 0.064538 0.346498 -0.269263
2011-01-31 06:50:17 51°13.686 2°55.783 11.6263 0.064538 0.346498 -0.234439
2011-01-31 06:50:23 51°13.686 2°55.774 11.6421 0.064538 0.346503 -0.269263
2011-01-31 06:50:28 51°13.686 2°55.767 11.6449 0.064538 0.346503 -0.234439
2011-01-31 06:50:33 51°13.687 2°55.76 11.6463 0.064538 0.346503 -0.234439
2011-01-31 06:50:37 51°13.687 2°55.755 11.6437 0.064538 0.346509 -0.269263
2011-01-31 06:50:43 51°13.688 2°55.749 11.6328 0.064538 0.346509 -0.234439
2011-01-31 06:50:47 51°13.688 2°55.746 11.7182 0.064538 0.346509 -0.234439
2011-01-31 06:50:53 51°13.688 2°55.744 11.7347 0.064538 0.346503 -0.269263
2011-01-31 06:50:57 51°13.689 2°55.744 11.7489 0.064538 0.346509 -0.304087
2011-01-31 06:51:02 51°13.69 2°55.745 11.6843 0.064538 0.346509 -0.304087
2011-01-31 06:51:07 51°13.691 2°55.747 11.7162 0.064538 0.346525 -0.234439
2011-01-31 06:51:12 51°13.692 2°55.749 11.6589 0.064538 0.346531 -0.304087
2011-01-31 06:51:17 51°13.693 2°55.751 11.6511 0.064538 0.346536 -0.199615
2011-01-31 06:51:21 51°13.694 2°55.753 11.54 0.064538 0.346536 -0.269263
2011-01-31 06:51:26 51°13.696 2°55.755 11.5521 0.064538 0.346514 -0.269263
2011-01-31 06:51:32 51°13.697 2°55.757 11.4879 0.064538 0.346514 -0.269263
2011-01-31 06:51:37 51°13.698 2°55.757 11.4792 0.064538 0.346503 -0.234439
2011-01-31 06:51:41 51°13.698 2°55.757 11.554 0.064538 0.346498 -0.269263
2011-01-31 06:51:46 51°13.698 2°55.757 11.4813 0.064538 0.346509 -0.269263
2011-01-31 06:51:51 51°13.697 2°55.756 11.6092 0.064538 0.34652 -0.269263
2011-01-31 06:51:56 51°13.696 2°55.755 11.5797 0.064538 0.346536 -0.269263
2011-01-31 06:52:01 51°13.695 2°55.754 11.5768 0.064538 0.346536 -0.269263
2011-01-31 06:52:06 51°13.693 2°55.752 11.5931 0.064538 0.346558 -0.269263
2011-01-31 06:52:12 51°13.691 2°55.751 11.5966 0.064538 0.346563 -0.269263
2011-01-31 06:52:17 51°13.689 2°55.749 11.5985 0.064538 0.346569 -0.234439
2011-01-31 06:52:23 51°13.687 2°55.748 11.6251 0.064538 0.346569 -0.199615
2011-01-31 06:52:28 51°13.686 2°55.747 11.6385 0.064538 0.346563 -0.234439
2011-01-31 06:52:33 51°13.686 2°55.746 11.6848 0.064538 0.346563 -0.234439
2011-01-31 06:52:38 51°13.686 2°55.746 11.6776 0.064538 0.346552 -0.269263
2011-01-31 06:52:43 51°13.688 2°55.746 11.6974 0.064538 0.346563 -0.234439
2011-01-31 06:52:48 51°13.689 2°55.745 11.7104 0.064538 0.346569 -0.234439
2011-01-31 06:52:53 51°13.692 2°55.745 11.7234 0.064538 0.346574 -0.234439
2011-01-31 06:52:57 51°13.694 2°55.743 11.7315 0.064538 0.34658 -0.269263
2011-01-31 06:53:03 51°13.698 2°55.741 11.719 0.064538 0.34658 -0.269263
2011-01-31 06:53:07 51°13.701 2°55.739 11.7167 0.064538 0.346591 -0.234439
2011-01-31 06:53:13 51°13.707 2°55.734 11.6755 0.064538 0.346596 -0.234439
2011-01-31 06:53:17 51°13.711 2°55.731 11.6715 0.064538 0.346585 -0.269263
2011-01-31 06:53:22 51°13.716 2°55.726 11.6167 0.064538 0.346574 -0.269263
2011-01-31 06:53:27 51°13.722 2°55.721 11.6289 0.064538 0.346563 -0.269263
2011-01-31 06:53:32 51°13.729 2°55.715 11.5188 0.064538 0.346563 -0.269263
2011-01-31 06:53:37 51°13.737 2°55.709 11.4864 0.064538 0.346569 -0.269263
2011-01-31 06:53:41 51°13.743 2°55.704 11.4805 0.064538 0.346569 -0.269263
2011-01-31 06:53:46 51°13.751 2°55.696 11.4819 0.064538 0.346585 -0.269263
2011-01-31 06:53:51 51°13.76 2°55.689 11.4629 0.064538 0.346601 -0.269263
2011-01-31 06:53:56 51°13.769 2°55.681 11.4178 0.064538 0.346618 -0.269263
2011-01-31 06:54:01 51°13.779 2°55.673 11.3448 0.064538 0.346618 -0.269263
2011-01-31 06:54:05 51°13.787 2°55.666 11.3313 0.064538 0.346623 -0.269263
2011-01-31 06:54:11 51°13.8 2°55.656 11.2876 0.064538 0.346623 -0.269263
2011-01-31 06:54:15 51°13.808 2°55.649 11.3166 0.064538 0.346623 -0.269263
2011-01-31 06:54:20 51°13.819 2°55.641 11.354 0.064538 0.346629 -0.234439
2011-01-31 06:54:25 51°13.83 2°55.632 11.344 0.064538 0.346629 -0.269263
2011-01-31 06:54:30 51°13.842 2°55.623 11.378 0.064538 0.346629 -0.269263
2011-01-31 06:54:35 51°13.854 2°55.615 11.3928 0.064538 0.346634 -0.269263
2011-01-31 06:54:40 51°13.866 2°55.606 11.3302 0.064538 0.346645 -0.269263
2011-01-31 06:54:45 51°13.878 2°55.597 11.3226 0.064538 0.346661 -0.234439
2011-01-31 06:54:49 51°13.888 2°55.59 11.3304 0.064538 0.346661 -0.234439
2011-01-31 06:54:54 51°13.9 2°55.581 11.3342 0.064538 0.346661 -0.234439
2011-01-31 06:54:59 51°13.913 2°55.572 11.35 0.064538 0.346661 -0.234439
2011-01-31 06:55:04 51°13.925 2°55.563 11.3732 0.064538 0.346661 -0.269263
2011-01-31 06:55:09 51°13.938 2°55.554 11.2977 0.064538 0.346661 -0.269263
2011-01-31 06:55:14 51°13.951 2°55.545 11.3579 0.064538 0.346667 -0.269263
2011-01-31 06:55:19 51°13.963 2°55.536 11.3756 0.064538 0.346672 -0.269263
2011-01-31 06:55:24 51°13.976 2°55.527 11.3863 0.064538 0.346678 -0.234439
2011-01-31 06:55:29 51°13.989 2°55.518 11.3813 0.064538 0.346678 -0.234439
2011-01-31 06:55:34 51°14.002 2°55.509 11.4047 0.064538 0.346689 -0.234439
2011-01-31 06:55:39 51°14.015 2°55.5 11.4055 0.064538 0.346689 -0.269263
2011-01-31 06:55:44 51°14.028 2°55.491 11.4151 0.064538 0.346689 -0.269263
2011-01-31 06:55:49 51°14.04 2°55.482 11.4166 0.064538 0.346694 -0.269263
2011-01-31 06:55:54 51°14.053 2°55.473 11.4477 0.064538 0.346689 -0.234439
2011-01-31 06:55:59 51°14.066 2°55.464 11.4672 0.064538 0.346689 -0.234439
2011-01-31 06:56:05 51°14.081 2°55.453 11.4323 0.064538 0.346694 -0.269263
2011-01-31 06:56:10 51°14.094 2°55.444 11.452 0.064538 0.346694 -0.269263
2011-01-31 06:56:16 51°14.11 2°55.433 11.5004 0.064538 0.3467 -0.269263
2011-01-31 06:56:21 51°14.123 2°55.423 9.735 0.064538 0.3467 -0.234439
2011-01-31 06:56:25 51°14.133 2°55.415 8.5746 0.064538 0.346667 -0.269263
2011-01-31 06:56:31 51°14.148 2°55.403 6.9219 0.064538 0.346667 -0.269263
2011-01-31 06:56:36 51°14.161 2°55.393 5.7715 0.072549 0.385801 0.113802
2011-01-31 06:56:41 51°14.174 2°55.383 5.2969 0.077439 0.41457 0.113802
2011-01-31 06:56:46 51°14.187 2°55.372 4.9001 0.080353 0.43894 -0.095143
2011-01-31 06:56:52 51°14.202 2°55.359 4.622 1.629425 11.464294 0.009329
2011-01-31 06:56:57 51°14.215 2°55.348 4.428 2.337993 18.953648 -0.095143
2011-01-31 06:57:03 51°14.23 2°55.335 4.3128 2.337993 18.953648 -0.095143
2011-01-31 06:57:08 51°14.242 2°55.322 4.2644 2.506457 21.42758 0.009329
2011-01-31 06:57:13 51°14.255 2°55.31 4.2903 2.87778 25.565847 0.078977
2011-01-31 06:57:17 51°14.265 2°55.301 4.1027 2.993551 27.852066 0.044153
2011-01-31 06:57:23 51°14.28 2°55.286 4.1447 2.912564 28.132868 0.044153
2011-01-31 06:57:28 51°14.292 2°55.274 4.1003 2.820946 27.794574 0.044153
2011-01-31 06:57:33 51°14.305 2°55.261 3.9623 2.820946 27.794574 0.044153
2011-01-31 06:57:37 51°14.314 2°55.25 3.8851 2.772511 27.673997 0.078977
2011-01-31 06:57:42 51°14.327 2°55.237 3.9405 2.735768 27.615637 0.078977
2011-01-31 06:57:48 51°14.342 2°55.221 3.9036 2.697025 27.378842 -0.025495
2011-01-31 06:57:53 51°14.354 2°55.207 3.8483 2.667022 27.207642 0.009329
2011-01-31 06:57:57 51°14.364 2°55.196 3.8377 2.644706 27.073538 0.009329
2011-01-31 06:58:02 51°14.376 2°55.182 3.8428 2.644706 27.073538 0.009329
2011-01-31 06:58:08 51°14.391 2°55.164 3.7801 2.630285 27.004102 0.044153
2011-01-31 06:58:13 51°14.404 2°55.149 3.8001 2.617444 26.955076 -0.025495
2011-01-31 06:58:17 51°14.414 2°55.137 3.7882 2.607655 26.922481 0.044153
2011-01-31 06:58:23 51°14.43 2°55.119 3.7177 2.604708 26.950993 -0.025495
2011-01-31 06:58:27 51°14.44 2°55.107 3.6776 2.607235 27.027526 -0.025495
2011-01-31 06:58:33 51°14.456 2°55.088 3.7203 2.607235 27.027526 -0.025495
2011-01-31 06:58:38 51°14.47 2°55.072 3.7246 2.606393 27.036076 0.044153
2011-01-31 06:58:43 51°14.484 2°55.057 3.7027 2.606815 27.106423 0.044153
2011-01-31 06:58:48 51°14.498 2°55.041 3.7459 2.608605 27.134185 0.009329
2011-01-31 06:58:53 51°14.512 2°55.025 3.6382 2.60671 27.151296 0.078977
2011-01-31 06:58:57 51°14.523 2°55.011 3.6646 2.603132 27.146955 0.078977
2011-01-31 06:59:02 51°14.536 2°54.992 3.6705 2.603132 27.146955 0.078977
2011-01-31 06:59:07 51°14.55 2°54.973 3.645 2.598606 27.138351 0.078977
2011-01-31 06:59:12 51°14.563 2°54.954 3.6345 2.597133 27.144952 0.009329
2011-01-31 06:59:17 51°14.576 2°54.934 3.6064 2.59608 27.129921 0.009329
2011-01-31 06:59:21 51°14.587 2°54.918 3.5898 2.595343 27.13322 0.009329
2011-01-31 06:59:26 51°14.601 2°54.899 3.5241 2.594922 27.144569 0.078977
2011-01-31 06:59:31 51°14.615 2°54.879 3.5344 2.594922 27.144569 0.078977
2011-01-31 06:59:36 51°14.628 2°54.86 3.5122 2.59787 27.196895 0.078977
2011-01-31 06:59:41 51°14.643 2°54.841 3.4991 2.59766 27.215156 0.078977
2011-01-31 06:59:46 51°14.657 2°54.823 3.478 2.605449 27.312283 0.009329
2011-01-31 06:59:51 51°14.671 2°54.804 3.5043 2.604502 27.32587 0.009329
2011-01-31 06:59:55 51°14.683 2°54.789 3.5072 2.603239 27.331375 0.044153
2011-01-31 07:00:01 51°14.7 2°54.767 3.4635 2.603239 27.331375 0.044153
2011-01-31 07:00:05 51°14.711 2°54.752 3.4846 2.599134 27.300355 0.009329
2011-01-31 07:00:10 51°14.725 2°54.733 3.4733 2.599661 27.339195 0.009329
2011-01-31 07:00:15 51°14.74 2°54.715 3.4693 2.604818 27.413772 0.044153
2011-01-31 07:00:21 51°14.757 2°54.692 3.5286 2.612713 27.531411 0.009329
2011-01-31 07:00:27 51°14.774 2°54.671 3.516 2.623661 27.671864 0.009329
2011-01-31 07:00:32 51°14.789 2°54.653 3.4995 2.623661 27.671864 0.009329
2011-01-31 07:00:37 51°14.803 2°54.635 3.5024 2.632503 27.77746 0.044153
2011-01-31 07:00:43 51°14.821 2°54.614 3.4942 2.64082 27.888452 0.044153
2011-01-31 07:00:48 51°14.835 2°54.596 3.4717 2.650084 28.002188 0.078977
2011-01-31 07:00:53 51°14.85 2°54.579 3.4899 2.657558 28.095984 0.078977
2011-01-31 07:00:57 51°14.862 2°54.565 3.4784 2.663664 28.162374 -0.025495
2011-01-31 07:01:03 51°14.88 2°54.544 3.511 2.663664 28.162374 -0.025495
2011-01-31 07:01:08 51°14.894 2°54.526 3.4997 2.667348 28.199831 0.044153
2011-01-31 07:01:13 51°14.908 2°54.508 3.5011 2.672086 28.256481 0.009329
2011-01-31 07:01:17 51°14.92 2°54.494 3.5193 2.674402 28.288844 0.009329
2011-01-31 07:01:22 51°14.934 2°54.476 3.4923 2.67756 28.329477 -0.060319
2011-01-31 07:01:27 51°14.949 2°54.458 3.4867 2.682298 28.388516 0.044153
2011-01-31 07:01:32 51°14.963 2°54.44 3.5016 2.682298 28.388516 0.044153
2011-01-31 07:01:37 51°14.977 2°54.422 3.4903 2.68314 28.401433 0.009329
2011-01-31 07:01:42 51°14.991 2°54.405 3.4915 2.686509 28.439896 0.009329
2011-01-31 07:01:47 51°15.005 2°54.387 3.4815 2.68693 28.440909 0.009329
2011-01-31 07:01:52 51°15.02 2°54.37 3.4935 2.689141 28.462767 0.044153
2011-01-31 07:01:56 51°15.031 2°54.356 3.4932 2.69051 28.481825 0.078977
2011-01-31 07:02:01 51°15.046 2°54.34 3.4908 2.69051 28.481825 0.078977
2011-01-31 07:02:06 51°15.06 2°54.323 3.4973 2.691984 28.499776 0.044153
2011-01-31 07:02:11 51°15.075 2°54.306 3.4966 2.693773 28.52297 0.009329
2011-01-31 07:02:16 51°15.09 2°54.29 3.5009 2.693142 28.517951 0.148626
2011-01-31 07:02:21 51°15.105 2°54.272 3.4923 2.695037 28.547849 0.044153
2011-01-31 07:02:25 51°15.116 2°54.258 3.4934 2.695458 28.552758 0.044153
2011-01-31 07:02:30 51°15.131 2°54.24 3.4899 2.695458 28.552758 0.044153
2011-01-31 07:02:35 51°15.145 2°54.222 3.4975 2.695142 28.548295 0.044153
2011-01-31 07:02:40 51°15.159 2°54.204 3.5005 2.696616 28.566259 0.113802
2011-01-31 07:02:45 51°15.173 2°54.185 3.5039 2.695984 28.559677 0.044153
2011-01-31 07:02:49 51°15.185 2°54.17 3.5068 2.697143 28.572396 0.009329
2011-01-31 07:02:54 51°15.198 2°54.151 3.5034 2.695984 28.561241 0.078977
2011-01-31 07:02:59 51°15.213 2°54.132 3.4946 2.695984 28.561241 0.078977
2011-01-31 07:03:04 51°15.227 2°54.114 3.5102 2.697143 28.576308 0.078977
2011-01-31 07:03:09 51°15.241 2°54.095 3.501 2.697143 28.577091 0.009329
2011-01-31 07:03:13 51°15.252 2°54.081 3.4977 2.697143 28.578656 0.078977
2011-01-31 07:03:19 51°15.27 2°54.059 3.4912 2.697458 28.578426 0.113802
2011-01-31 07:03:24 51°15.284 2°54.041 3.4785 2.697458 28.576861 0.078977
2011-01-31 07:03:29 51°15.298 2°54.023 3.4891 2.697458 28.576861 0.078977
2011-01-31 07:03:34 51°15.312 2°54.004 3.4834 2.698195 28.587802 0.078977
2011-01-31 07:03:39 51°15.327 2°53.985 3.4774 2.696827 28.572626 0.044153
2011-01-31 07:03:44 51°15.34 2°53.966 3.4913 2.698406 28.590257 0.113802
2011-01-31 07:03:49 51°15.354 2°53.947 3.4969 2.698406 28.594172 0.044153
2011-01-31 07:03:53 51°15.365 2°53.931 3.4932 2.698195 28.594066 0.044153
2011-01-31 07:03:59 51°15.381 2°53.907 3.4854 2.698195 28.594066 0.044153
2011-01-31 07:04:04 51°15.395 2°53.887 3.4889 2.699038 28.607807 0.113802
2011-01-31 07:04:09 51°15.408 2°53.868 3.4938 2.698301 28.603128 0.113802
2011-01-31 07:04:14 51°15.422 2°53.848 3.489 2.698722 28.612745 0.148626
2011-01-31 07:04:19 51°15.436 2°53.829 3.4966 2.698722 28.612745 -0.025495
2011-01-31 07:04:24 51°15.45 2°53.811 3.4918 2.699459 28.618208 0.078977
2011-01-31 07:04:29 51°15.464 2°53.792 3.4767 2.699459 28.618208 0.078977
2011-01-31 07:04:34 51°15.478 2°53.774 3.4839 2.700617 28.630936 0.113802
2011-01-31 07:04:39 51°15.492 2°53.754 3.4879 2.700406 28.630832 0.078977
2011-01-31 07:04:44 51°15.506 2°53.735 3.4776 2.701986 28.643766 0.148626
2011-01-31 07:04:49 51°15.52 2°53.715 3.4775 2.703775 28.66622 0.113802
2011-01-31 07:04:54 51°15.534 2°53.696 3.4767 2.706408 28.700082 0.044153
2011-01-31 07:04:59 51°15.548 2°53.677 3.4715 2.706408 28.700082 0.044153
2011-01-31 07:05:04 51°15.562 2°53.659 3.4738 2.707039 28.704309 0.044153
2011-01-31 07:05:09 51°15.577 2°53.641 3.4666 2.708829 28.729134 0.113802
2011-01-31 07:05:14 51°15.591 2°53.622 3.4723 2.708724 28.730267 0.044153
2011-01-31 07:05:19 51°15.605 2°53.604 3.4744 2.708303 28.729287 0.078977
2011-01-31 07:05:24 51°15.62 2°53.587 3.463 2.707461 28.721028 0.044153
2011-01-31 07:05:29 51°15.635 2°53.569 3.4908 2.707461 28.721028 0.044153
2011-01-31 07:05:34 51°15.649 2°53.551 3.479 2.707355 28.724522 -0.025495
2011-01-31 07:05:39 51°15.664 2°53.534 3.4822 2.706513 28.720986 0.044153
2011-01-31 07:05:44 51°15.679 2°53.517 3.4891 2.704513 28.70077 0.078977
2011-01-31 07:05:49 51°15.694 2°53.502 3.4947 2.704934 28.705689 0.044153
2011-01-31 07:05:54 51°15.71 2°53.487 3.4913 2.70346 28.691621 0.009329
2011-01-31 07:05:59 51°15.725 2°53.474 3.4896 2.70346 28.691621 0.009329
2011-01-31 07:06:04 51°15.741 2°53.461 3.5001 2.706724 28.72896 0.009329
2011-01-31 07:06:09 51°15.758 2°53.45 3.4979 2.707671 28.737665 0.078977
2011-01-31 07:06:14 51°15.774 2°53.439 3.4955 2.708198 28.74145 0.044153
2011-01-31 07:06:19 51°15.791 2°53.429 3.491 2.709987 28.76157 0.009329
2011-01-31 07:06:24 51°15.808 2°53.42 3.4872 2.713672 28.801463 0.044153
2011-01-31 07:06:29 51°15.825 2°53.411 3.4875 2.713672 28.801463 0.044153
2011-01-31 07:06:34 51°15.841 2°53.402 3.4836 2.715252 28.816754 0.113802
2011-01-31 07:06:39 51°15.858 2°53.393 3.4783 2.714831 28.810254 0.044153
2011-01-31 07:06:44 51°15.875 2°53.384 3.4794 2.716094 28.823433 0.18345
2011-01-31 07:06:49 51°15.892 2°53.374 3.4792 2.714515 28.806564 0.078977
2011-01-31 07:06:53 51°15.905 2°53.365 3.4897 2.716094 28.825804 0.148626
2011-01-31 07:06:59 51°15.925 2°53.352 3.4852 2.716094 28.825804 0.148626
2011-01-31 07:07:04 51°15.941 2°53.34 3.4826 2.717779 28.847067 0.148626
2011-01-31 07:07:09 51°15.957 2°53.327 3.4865 2.714831 28.815784 0.113802
2011-01-31 07:07:14 51°15.974 2°53.315 3.4877 2.715357 28.825096 0.148626
2011-01-31 07:07:19 51°15.99 2°53.302 3.4937 2.714515 28.819995 0.078977
2011-01-31 07:07:24 51°16.006 2°53.289 3.4885 2.712936 28.803909 0.113802
2011-01-31 07:07:29 51°16.022 2°53.275 3.4998 2.712936 28.803909 0.113802
2011-01-31 07:07:34 51°16.038 2°53.262 3.4875 2.710514 28.773243 0.253098
2011-01-31 07:07:39 51°16.054 2°53.249 3.4962 2.708619 28.750311 0.18345
2011-01-31 07:07:44 51°16.071 2°53.236 3.4934 2.706829 28.730978 0.253098
2011-01-31 07:07:49 51°16.087 2°53.223 3.4874 2.706829 28.731766 0.427218
2011-01-31 07:07:54 51°16.103 2°53.21 3.4923 2.714515 28.820786 0.287922
2011-01-31 07:07:59 51°16.12 2°53.197 3.499 2.714515 28.820786 0.287922
2011-01-31 07:08:04 51°16.136 2°53.184 3.4903 2.715357 28.829049 0.287922
2011-01-31 07:08:09 51°16.152 2°53.172 3.4954 2.721148 28.895151 0.218274
2011-01-31 07:08:13 51°16.165 2°53.162 3.4845 2.718621 28.865614 0.322746
2011-01-31 07:08:19 51°16.185 2°53.147 3.4936 2.721464 28.899636 0.35757
2011-01-31 07:08:24 51°16.202 2°53.134 3.4998 2.720832 28.889874 0.287922
2011-01-31 07:08:29 51°16.218 2°53.121 3.5012 2.720832 28.889874 0.287922
2011-01-31 07:08:34 51°16.234 2°53.109 3.506 2.721148 28.894358 0.322746
2011-01-31 07:08:39 51°16.251 2°53.096 3.507 2.721885 28.904559 0.462042
2011-01-31 07:08:44 51°16.267 2°53.085 3.5076 2.721358 28.89682 0.287922
2011-01-31 07:08:49 51°16.283 2°53.072 3.5069 2.725043 28.941488 0.18345
2011-01-31 07:08:53 51°16.296 2°53.063 3.5141 2.725043 28.943076 0.18345
2011-01-31 07:08:59 51°16.316 2°53.048 3.5225 2.725043 28.943076 0.18345
2011-01-31 07:09:04 51°16.332 2°53.037 3.5349 2.724938 28.940257 0.148626
2011-01-31 07:09:09 51°16.348 2°53.024 3.5531 2.727044 28.962497 0.148626
2011-01-31 07:09:14 51°16.365 2°53.012 3.5511 2.727991 28.9704 0.148626
2011-01-31 07:09:19 51°16.381 2°53.001 3.5624 2.72915 28.980763 0.18345
2011-01-31 07:09:24 51°16.397 2°52.989 3.5653 2.732414 29.015744 0.218274
2011-01-31 07:09:29 51°16.413 2°52.978 3.5722 2.732414 29.015744 0.218274
2011-01-31 07:09:34 51°16.43 2°52.967 3.5741 2.731466 29.004665 0.253098
2011-01-31 07:09:39 51°16.446 2°52.956 3.5743 2.735677 29.049928 0.218274
2011-01-31 07:09:44 51°16.463 2°52.945 3.5832 2.73652 29.051017 0.18345
2011-01-31 07:09:49 51°16.479 2°52.934 3.5854 2.739573 29.077948 0.253098
2011-01-31 07:09:54 51°16.496 2°52.924 3.5864 2.743469 29.117104 0.18345
2011-01-31 07:09:59 51°16.512 2°52.914 3.5929 2.743469 29.117104 0.18345
2011-01-31 07:10:04 51°16.529 2°52.904 3.5874 2.747049 29.149367 0.18345
2011-01-31 07:10:09 51°16.546 2°52.894 3.5963 2.752103 29.202039 0.287922
2011-01-31 07:10:14 51°16.562 2°52.883 3.6079 2.753471 29.213237 0.253098
2011-01-31 07:10:19 51°16.578 2°52.873 3.6071 2.757788 29.260484 0.322746
2011-01-31 07:10:24 51°16.595 2°52.863 3.6034 2.76021 29.283979 0.322746
2011-01-31 07:10:29 51°16.612 2°52.853 3.606 2.76021 29.283979 0.322746
2011-01-31 07:10:34 51°16.628 2°52.843 3.6182 2.761158 29.291046 0.322746
2011-01-31 07:10:39 51°16.645 2°52.833 3.6093 2.762632 29.306668 0.35757
2011-01-31 07:10:44 51°16.661 2°52.822 3.6115 2.763685 29.316566 0.322746
2011-01-31 07:10:49 51°16.678 2°52.812 3.612 2.764843 29.327694 0.322746
2011-01-31 07:10:53 51°16.691 2°52.803 3.6104 2.765264 29.327 0.35757
2011-01-31 07:10:59 51°16.71 2°52.791 3.6107 2.765264 29.327 0.35757
2011-01-31 07:11:04 51°16.727 2°52.78 3.6125 2.766949 29.343473 0.322746
2011-01-31 07:11:09 51°16.743 2°52.77 3.6108 2.768107 29.353794 0.35757
2011-01-31 07:11:14 51°16.76 2°52.761 3.617 2.767896 29.348125 0.35757
2011-01-31 07:11:19 51°16.776 2°52.752 3.6205 2.770002 29.372723 0.392394
2011-01-31 07:11:24 51°16.792 2°52.743 3.6201 2.769897 29.370691 0.427218
2011-01-31 07:11:29 51°16.809 2°52.734 3.618 2.769897 29.370691 0.427218
2011-01-31 07:11:34 51°16.825 2°52.725 3.622 2.771792 29.392831 0.566514
2011-01-31 07:11:39 51°16.842 2°52.717 3.6224 2.771161 29.383844 0.392394
2011-01-31 07:11:44 51°16.858 2°52.709 3.6281 2.771371 29.38791 0.427218
2011-01-31 07:11:49 51°16.875 2°52.7 3.6243 2.771477 29.387534 0.462042
2011-01-31 07:11:54 51°16.891 2°52.692 3.6242 2.771371 29.384698 0.427218
2011-01-31 07:11:59 51°16.908 2°52.683 3.6261 2.771371 29.384698 0.427218
2011-01-31 07:12:04 51°16.924 2°52.675 3.6248 2.771792 29.386405 0.427218
2011-01-31 07:12:09 51°16.941 2°52.666 3.6296 2.772003 29.388864 0.601338
2011-01-31 07:12:14 51°16.957 2°52.658 3.6273 2.770318 29.369188 0.496866
2011-01-31 07:12:19 51°16.974 2°52.649 3.6252 2.770424 29.368813 0.496866
2011-01-31 07:12:24 51°16.991 2°52.642 3.628 2.770739 29.370094 0.496866
2011-01-31 07:12:29 51°17.008 2°52.635 3.6232 2.770739 29.370094 0.496866
2011-01-31 07:12:34 51°17.025 2°52.63 3.6233 2.771582 29.380734 0.53169
2011-01-31 07:12:39 51°17.042 2°52.624 3.6262 2.769476 29.35534 0.566514
2011-01-31 07:12:44 51°17.058 2°52.619 3.6238 2.76916 29.351652 0.53169
2011-01-31 07:12:49 51°17.075 2°52.614 3.6285 2.769897 29.360258 0.566514
2011-01-31 07:12:53 51°17.089 2°52.61 3.6283 2.770213 29.363144 0.566514
2011-01-31 07:12:59 51°17.109 2°52.605 3.6299 2.770213 29.363144 0.566514
2011-01-31 07:13:04 51°17.126 2°52.6 3.629 2.770002 29.358279 0.53169
2011-01-31 07:13:09 51°17.142 2°52.596 3.6308 2.770108 29.361113 0.53169
2011-01-31 07:13:14 51°17.159 2°52.59 3.6294 2.771161 29.37421 0.636162
2011-01-31 07:13:19 51°17.176 2°52.586 3.6336 2.771055 29.372178 0.53169
2011-01-31 07:13:24 51°17.193 2°52.58 3.6332 2.770739 29.36849 0.53169
2011-01-31 07:13:29 51°17.21 2°52.575 3.6341 2.770739 29.36849 0.53169
2011-01-31 07:13:34 51°17.226 2°52.569 3.6349 2.771371 29.375867 0.636162
2011-01-31 07:13:39 51°17.243 2°52.563 3.6368 2.771792 29.381587 0.636162
2011-01-31 07:13:44 51°17.26 2°52.557 3.6369 2.769897 29.358654 0.670986
2011-01-31 07:13:49 51°17.277 2°52.551 3.643 2.770529 29.366031 0.670986
2011-01-31 07:13:54 51°17.294 2°52.545 3.6404 2.770423 29.363999 0.636162
2011-01-31 07:13:59 51°17.311 2°52.539 3.6475 2.770423 29.363999 0.636162
2011-01-31 07:14:04 51°17.328 2°52.534 3.6503 2.772003 29.381638 0.636162
2011-01-31 07:14:09 51°17.344 2°52.529 3.6516 2.771266 29.37223 0.636162
2011-01-31 07:14:14 51°17.361 2°52.524 3.6581 2.771161 29.371 0.740634
2011-01-31 07:14:19 51°17.378 2°52.519 3.6609 2.771792 29.375969 0.70581
2011-01-31 07:14:24 51°17.395 2°52.514 3.6656 2.772951 29.38869 0.740634
2011-01-31 07:14:29 51°17.412 2°52.509 3.6669 2.772951 29.38869 0.740634
2011-01-31 07:14:34 51°17.429 2°52.505 3.6706 2.773161 29.389543 0.70581
2011-01-31 07:14:39 51°17.446 2°52.502 3.6708 2.773582 29.391249 0.70581
2011-01-31 07:14:44 51°17.463 2°52.5 3.6713 2.77295 29.379862 0.70581
2011-01-31 07:14:49 51°17.48 2°52.498 3.6771 2.774635 29.397922 0.670986
2011-01-31 07:14:53 51°17.494 2°52.497 3.6798 2.775056 29.399627 0.70581
2011-01-31 07:14:59 51°17.515 2°52.496 3.6787 2.775056 29.399627 0.70581
2011-01-31 07:15:04 51°17.532 2°52.496 3.6861 2.776215 29.409131 0.70581
2011-01-31 07:15:09 51°17.549 2°52.495 3.6909 2.776531 29.408804 0.775459
2011-01-31 07:15:14 51°17.566 2°52.495 3.6924 2.778321 29.42648 0.70581
2011-01-31 07:15:19 51°17.583 2°52.494 3.6976 2.779268 29.436735 0.670986
2011-01-31 07:15:24 51°17.6 2°52.494 3.7029 2.780848 29.451952 0.740634
2011-01-31 07:15:29 51°17.617 2°52.494 3.7094 2.780848 29.451952 0.740634
2011-01-31 07:15:34 51°17.634 2°52.494 3.7103 2.780005 29.440516 0.70581
2011-01-31 07:15:39 51°17.651 2°52.494 3.7171 2.781795 29.458187 0.70581
2011-01-31 07:15:44 51°17.668 2°52.493 3.7219 2.781795 29.45658 0.601338
2011-01-31 07:15:49 51°17.685 2°52.493 3.7274 2.78169 29.449728 0.566514
2011-01-31 07:15:54 51°17.702 2°52.493 3.7313 2.783269 29.465741 0.636162
2011-01-31 07:15:59 51°17.719 2°52.494 3.7321 2.783269 29.465741 0.636162
2011-01-31 07:16:04 51°17.736 2°52.495 3.7363 2.784217 29.472776 0.636162
2011-01-31 07:16:09 51°17.753 2°52.497 3.7391 2.785586 29.484722 0.70581
2011-01-31 07:16:14 51°17.77 2°52.499 3.7418 2.787271 29.50035 0.601338
2011-01-31 07:16:19 51°17.787 2°52.501 3.7437 2.788534 29.511064 0.601338
2011-01-31 07:16:24 51°17.804 2°52.504 3.7464 2.790746 29.531217 0.601338
2011-01-31 07:16:29 51°17.821 2°52.506 3.7474 2.790746 29.531217 0.601338
2011-01-31 07:16:33 51°17.834 2°52.508 3.7515 2.791061 29.530072 0.70581
2011-01-31 07:16:39 51°17.854 2°52.512 3.7524 2.793062 29.549372 0.670986
2011-01-31 07:16:44 51°17.871 2°52.514 3.7551 2.792852 29.542893 0.70581
2011-01-31 07:16:49 51°17.888 2°52.516 3.7593 2.79422 29.556434 0.636162
2011-01-31 07:16:54 51°17.905 2°52.518 3.7632 2.795695 29.569591 0.601338
2011-01-31 07:16:59 51°17.922 2°52.519 3.7663 2.795695 29.569591 0.601338
2011-01-31 07:17:04 51°17.939 2°52.521 3.7723 2.796748 29.579448 0.670986
2011-01-31 07:17:09 51°17.956 2°52.523 3.7767 2.797695 29.588882 0.636162
2011-01-31 07:17:14 51°17.973 2°52.524 3.7818 2.796853 29.574233 0.636162
2011-01-31 07:17:19 51°17.991 2°52.526 3.7882 2.798116 29.588152 0.636162
2011-01-31 07:17:24 51°18.008 2°52.528 3.7981 2.799275 29.599233 0.601338
2011-01-31 07:17:29 51°18.025 2°52.53 3.802 2.799275 29.599233 0.601338
2011-01-31 07:17:34 51°18.042 2°52.532 3.8111 2.800117 29.605825 0.636162
2011-01-31 07:17:39 51°18.059 2°52.534 3.8163 2.801381 29.616519 0.601338
2011-01-31 07:17:44 51°18.075 2°52.536 3.8265 2.802118 29.621077 0.601338
2011-01-31 07:17:49 51°18.093 2°52.538 3.8291 2.803381 29.631766 0.566514
2011-01-31 07:17:54 51°18.109 2°52.541 3.8372 2.80475 29.642068 0.636162
2011-01-31 07:17:59 51°18.126 2°52.543 3.8432 2.80475 29.642068 0.636162
2011-01-31 07:18:04 51°18.143 2°52.545 3.8548 2.806119 29.652368 0.53169
2011-01-31 07:18:09 51°18.16 2°52.548 3.8589 2.80812 29.669215 0.53169
2011-01-31 07:18:14 51°18.177 2°52.549 3.8634 2.810015 29.684831 0.601338
2011-01-31 07:18:19 51°18.194 2°52.551 3.8708 2.810753 29.687765 0.53169
2011-01-31 07:18:24 51°18.211 2°52.552 3.8759 2.811806 29.691954 0.53169
2011-01-31 07:18:29 51°18.228 2°52.554 3.8824 2.811806 29.691954 0.53169
2011-01-31 07:18:33 51°18.242 2°52.556 3.8912 2.813596 29.703913 0.53169
2011-01-31 07:18:39 51°18.262 2°52.557 3.8932 2.816755 29.733409 0.636162
2011-01-31 07:18:44 51°18.279 2°52.559 3.898 2.817597 29.736751 0.53169
2011-01-31 07:18:49 51°18.296 2°52.559 3.9019 2.818018 29.734387 0.636162
2011-01-31 07:18:54 51°18.313 2°52.56 3.9023 2.821072 29.764253 0.53169
2011-01-31 07:18:59 51°18.33 2°52.561 3.8979 2.821072 29.764253 0.53169
2011-01-31 07:19:04 51°18.347 2°52.563 3.8948 2.823073 29.781059 0.601338
2011-01-31 07:19:09 51°18.364 2°52.564 3.8891 2.824442 29.789706 0.601338
2011-01-31 07:19:14 51°18.381 2°52.566 3.8854 2.825179 29.791813 0.566514
2011-01-31 07:19:19 51°18.398 2°52.568 3.8809 2.828338 29.824497 0.566514
2011-01-31 07:19:24 51°18.415 2°52.57 3.8746 2.82897 29.826182 0.496866
2011-01-31 07:19:29 51°18.432 2°52.572 3.8782 2.82897 29.826182 0.496866
2011-01-31 07:19:34 51°18.45 2°52.574 3.8884 2.83234 29.859687 0.53169
2011-01-31 07:19:39 51°18.467 2°52.575 3.8934 2.831497 29.849087 0.53169
2011-01-31 07:19:44 51°18.484 2°52.576 3.9033 2.831603 29.85112 0.566514
2011-01-31 07:19:49 51°18.501 2°52.577 3.9115 2.830655 29.842531 0.53169
2011-01-31 07:19:53 51°18.514 2°52.578 3.9176 2.831392 29.855145 0.601338
2011-01-31 07:19:59 51°18.535 2°52.579 3.9169 2.831392 29.855145 0.601338
2011-01-31 07:20:04 51°18.552 2°52.58 3.9195 2.830971 29.855104 0.427218
2011-01-31 07:20:09 51°18.569 2°52.581 3.919 2.830444 29.850601 0.427218
2011-01-31 07:20:14 51°18.586 2°52.583 3.9201 2.830444 29.847364 0.53169
2011-01-31 07:20:19 51°18.603 2°52.584 3.9178 2.831497 29.85556 0.53169
2011-01-31 07:20:24 51°18.62 2°52.585 3.923 2.834341 29.883754 0.496866
2011-01-31 07:20:29 51°18.637 2°52.586 3.9229 2.834341 29.883754 0.496866
2011-01-31 07:20:34 51°18.654 2°52.587 3.9255 2.835604 29.890343 0.496866
2011-01-31 07:20:39 51°18.671 2°52.588 3.9292 2.838132 29.914855 0.496866
2011-01-31 07:20:44 51°18.688 2°52.589 3.9321 2.8375 29.904272 0.427218
2011-01-31 07:20:49 51°18.705 2°52.589 3.9303 2.83908 29.921007 0.496866
2011-01-31 07:20:54 51°18.723 2°52.589 3.9231 2.840343 29.93407 0.496866
2011-01-31 07:20:59 51°18.74 2°52.59 3.9171 2.840343 29.93407 0.496866
2011-01-31 07:21:04 51°18.757 2°52.59 3.9033 2.84087 29.938567 0.496866
2011-01-31 07:21:09 51°18.774 2°52.589 3.8923 2.840449 29.932051 0.35757
2011-01-31 07:21:14 51°18.792 2°52.59 3.8784 2.842871 29.959384 0.35757
2011-01-31 07:21:19 51°18.809 2°52.59 3.8722 2.843924 29.97081 0.53169
2011-01-31 07:21:24 51°18.826 2°52.59 3.8543 2.844766 29.976541 0.392394
2011-01-31 07:21:29 51°18.843 2°52.591 3.8381 2.844766 29.976541 0.392394
2011-01-31 07:21:34 51°18.86 2°52.591 3.8252 2.843713 29.964305 0.392394
2011-01-31 07:21:39 51°18.878 2°52.592 3.8224 2.843713 29.970797 0.392394
2011-01-31 07:21:44 51°18.894 2°52.593 3.7996 2.841081 29.945069 0.462042
2011-01-31 07:21:49 51°18.912 2°52.593 3.7892 2.840343 29.949482 0.322746
2011-01-31 07:21:53 51°18.925 2°52.594 3.7835 2.837605 29.926572 0.427218
2011-01-31 07:21:59 51°18.946 2°52.595 3.7765 2.837605 29.926572 0.427218
2011-01-31 07:22:04 51°18.963 2°52.596 3.7652 2.833183 29.884868 0.322746
2011-01-31 07:22:09 51°18.981 2°52.596 3.7635 2.829286 29.853322 0.392394
2011-01-31 07:22:14 51°18.998 2°52.598 3.7599 2.82539 29.819328 0.392394
2011-01-31 07:22:19 51°19.015 2°52.598 3.755 2.821599 29.786543 0.35757
2011-01-31 07:22:24 51°19.032 2°52.598 3.7573 2.816544 29.743881 0.392394
2011-01-31 07:22:29 51°19.05 2°52.599 3.7504 2.816544 29.743881 0.392394
2011-01-31 07:22:34 51°19.067 2°52.599 3.757 2.812332 29.708576 0.35757
2011-01-31 07:22:39 51°19.084 2°52.599 3.752 2.808857 29.675378 0.35757
2011-01-31 07:22:44 51°19.101 2°52.6 3.7558 2.806014 29.650335 0.287922
2011-01-31 07:22:49 51°19.119 2°52.6 3.7569 2.803908 29.634675 0.287922
2011-01-31 07:22:54 51°19.136 2°52.601 3.7617 2.801381 29.608461 0.253098
2011-01-31 07:22:59 51°19.154 2°52.601 3.7736 2.801381 29.608461 0.253098
2011-01-31 07:23:04 51°19.171 2°52.601 3.7753 2.800538 29.60751 0.253098
2011-01-31 07:23:09 51°19.188 2°52.601 3.7779 2.798959 29.592329 0.287922
2011-01-31 07:23:14 51°19.206 2°52.601 3.7855 2.798222 29.585352 0.18345
2011-01-31 07:23:19 51°19.223 2°52.602 3.788 2.797274 29.576725 0.218274
2011-01-31 07:23:24 51°19.24 2°52.602 3.7899 2.798854 29.595936 0.322746
2011-01-31 07:23:29 51°19.257 2°52.602 3.791 2.798854 29.595936 0.322746
2011-01-31 07:23:34 51°19.274 2°52.602 3.7974 2.798432 29.588611 0.322746
2011-01-31 07:23:39 51°19.292 2°52.603 3.7998 2.799907 29.60176 0.35757
2011-01-31 07:23:44 51°19.309 2°52.603 3.8034 2.800222 29.599802 0.287922
2011-01-31 07:23:49 51°19.326 2°52.603 3.8029 2.803592 29.635026 0.218274
2011-01-31 07:23:53 51°19.34 2°52.603 3.7975 2.804119 29.637128 0.287922
2011-01-31 07:23:59 51°19.361 2°52.603 3.7975 2.804119 29.637128 0.287922
2011-01-31 07:24:04 51°19.378 2°52.603 3.7888 2.805593 29.648655 0.287922
2011-01-31 07:24:09 51°19.395 2°52.603 3.791 2.807804 29.672797 0.322746
2011-01-31 07:24:14 51°19.413 2°52.602 3.7768 2.80812 29.672442 0.287922
2011-01-31 07:24:19 51°19.43 2°52.603 3.776 2.810016 29.691288 0.253098
2011-01-31 07:24:24 51°19.447 2°52.603 3.7573 2.809594 29.683961 0.253098
2011-01-31 07:24:29 51°19.464 2°52.603 3.7495 2.809594 29.683961 0.253098
2011-01-31 07:24:34 51°19.482 2°52.603 3.7362 2.80991 29.688447 0.18345
2011-01-31 07:24:39 51°19.499 2°52.603 3.732 2.80991 29.688447 0.287922
2011-01-31 07:24:44 51°19.516 2°52.603 3.7213 2.810647 29.700261 0.218274
2011-01-31 07:24:49 51°19.533 2°52.604 3.7166 2.808331 29.678123 0.218274
2011-01-31 07:24:54 51°19.551 2°52.604 3.7071 2.805698 29.651494 0.218274
2011-01-31 07:24:59 51°19.568 2°52.604 3.6923 2.805698 29.651494 0.218274
2011-01-31 07:25:04 51°19.585 2°52.604 3.6935 2.804435 29.64484 0.253098
2011-01-31 07:25:09 51°19.602 2°52.604 3.6843 2.798432 29.584585 0.18345
2011-01-31 07:25:14 51°19.62 2°52.604 3.6846 2.794957 29.552148 0.148626
2011-01-31 07:25:19 51°19.637 2°52.604 3.6838 2.79243 29.532352 0.18345
2011-01-31 07:25:24 51°19.654 2°52.604 3.6837 2.788218 29.491304 0.18345
2011-01-31 07:25:29 51°19.672 2°52.603 3.6818 2.788218 29.491304 0.18345
2011-01-31 07:25:34 51°19.689 2°52.601 3.6801 2.785586 29.471063 0.218274
2011-01-31 07:25:39 51°19.706 2°52.598 3.6829 2.781163 29.429139 0.287922
2011-01-31 07:25:44 51°19.724 2°52.595 3.6782 2.779057 29.4102 0.218274
2011-01-31 07:25:49 51°19.741 2°52.59 3.675 2.776846 29.394038 0.148626
2011-01-31 07:25:54 51°19.758 2°52.586 3.6687 2.774424 29.370603 0.218274
2011-01-31 07:25:59 51°19.776 2°52.58 3.6714 2.774424 29.370603 0.218274
2011-01-31 07:26:04 51°19.793 2°52.575 3.674 2.773898 29.365265 0.218274
2011-01-31 07:26:09 51°19.811 2°52.569 3.6737 2.77116 29.334939 0.218274
2011-01-31 07:26:13 51°19.825 2°52.565 3.6772 2.771371 29.338996 0.218274
2011-01-31 07:26:19 51°19.845 2°52.558 3.6698 2.769054 29.312782 0.113802
2011-01-31 07:26:24 51°19.863 2°52.554 3.6706 2.767159 29.295478 0.18345
2011-01-31 07:26:29 51°19.88 2°52.549 3.6754 2.767159 29.295478 0.18345
2011-01-31 07:26:34 51°19.898 2°52.545 3.6677 2.767685 29.304816 0.18345
2011-01-31 07:26:39 51°19.915 2°52.542 3.6657 2.76558 29.281854 0.218274
2011-01-31 07:26:44 51°19.933 2°52.538 3.6626 2.763052 29.252383 0.218274
2011-01-31 07:26:49 51°19.95 2°52.535 3.6678 2.76221 29.24256 0.18345
2011-01-31 07:26:54 51°19.968 2°52.532 3.6702 2.760947 29.227029 0.18345
2011-01-31 07:26:59 51°19.985 2°52.528 3.6707 2.760947 29.227029 0.18345
2011-01-31 07:27:04 51°20.003 2°52.525 3.6722 2.759999 29.218372 0.218274
2011-01-31 07:27:09 51°20.021 2°52.522 3.6759 2.761578 29.235991 0.287922
2011-01-31 07:27:14 51°20.038 2°52.519 3.6725 2.759683 29.214689 0.218274
2011-01-31 07:27:19 51°20.056 2°52.516 3.667 2.759051 29.208917 0.148626
2011-01-31 07:27:24 51°20.073 2°52.513 3.6628 2.75863 29.2056 0.218274
2011-01-31 07:27:29 51°20.091 2°52.511 3.6623 2.75863 29.2056 0.218274
2011-01-31 07:27:34 51°20.108 2°52.508 3.6508 2.759578 29.215853 0.218274
2011-01-31 07:27:39 51°20.126 2°52.505 3.6483 2.759367 29.214195 0.18345
2011-01-31 07:27:44 51°20.144 2°52.502 3.6452 2.757893 29.196209 0.148626
2011-01-31 07:27:49 51°20.162 2°52.499 3.6466 2.759051 29.206525 0.218274
2011-01-31 07:27:54 51°20.179 2°52.496 3.6422 2.759999 29.219169 0.18345
2011-01-31 07:27:59 51°20.197 2°52.492 3.6358 2.759999 29.219169 0.18345
2011-01-31 07:28:04 51°20.214 2°52.489 3.6358 2.758314 29.201917 0.148626
2011-01-31 07:28:09 51°20.232 2°52.486 3.628 2.757367 29.194055 0.148626
2011-01-31 07:28:13 51°20.246 2°52.484 3.6303 2.755577 29.176369 0.148626
2011-01-31 07:28:19 51°20.267 2°52.481 3.6212 2.753997 29.163526 0.148626
2011-01-31 07:28:24 51°20.285 2°52.479 3.6114 2.751576 29.139262 0.148626
2011-01-31 07:28:29 51°20.302 2°52.477 3.5992 2.751576 29.139262 0.148626
2011-01-31 07:28:34 51°20.32 2°52.475 3.6114 2.75147 29.140422 0.148626
2011-01-31 07:28:39 51°20.338 2°52.474 3.6021 2.74947 29.120271 0.113802
2011-01-31 07:28:44 51°20.355 2°52.472 3.5997 2.74789 29.105826 0.078977
2011-01-31 07:28:49 51°20.373 2°52.471 3.6017 2.746943 29.098748 0.148626
2011-01-31 07:28:54 51°20.39 2°52.47 3.6004 2.745258 29.083865 0.113802
2011-01-31 07:28:59 51°20.408 2°52.469 3.5974 2.745258 29.083865 0.113802
2011-01-31 07:29:04 51°20.426 2°52.468 3.5964 2.743574 29.069773 0.078977
2011-01-31 07:29:09 51°20.443 2°52.467 3.5972 2.741468 29.053147 0.148626
2011-01-31 07:29:14 51°20.461 2°52.465 3.5953 2.740099 29.037968 0.113802
2011-01-31 07:29:19 51°20.479 2°52.464 3.5899 2.738941 29.027628 0.113802
2011-01-31 07:29:24 51°20.496 2°52.462 3.5816 2.737888 29.018516 0.113802
2011-01-31 07:29:29 51°20.514 2°52.461 3.5722 2.737888 29.018516 0.113802
2011-01-31 07:29:33 51°20.528 2°52.46 3.5742 2.737151 29.012295 0.113802
2011-01-31 07:29:39 51°20.548 2°52.458 3.5707 2.737572 29.018798 0.113802
2011-01-31 07:29:44 51°20.566 2°52.458 3.5679 2.737677 29.020027 0.18345
2011-01-31 07:29:49 51°20.584 2°52.458 3.5641 2.737362 29.018722 0.044153
2011-01-31 07:29:54 51°20.601 2°52.458 3.5672 2.737677 29.023997 0.078977
2011-01-31 07:29:59 51°20.619 2°52.458 3.5719 2.737677 29.023997 0.078977
2011-01-31 07:30:04 51°20.637 2°52.458 3.5768 2.735993 29.007507 0.113802
2011-01-31 07:30:09 51°20.654 2°52.459 3.5736 2.734203 28.990579 0.113802
2011-01-31 07:30:14 51°20.672 2°52.459 3.5742 2.732834 28.977772 0.078977
2011-01-31 07:30:19 51°20.69 2°52.459 3.5699 2.731887 28.969088 0.113802
2011-01-31 07:30:24 51°20.707 2°52.459 3.5727 2.730623 28.959886 0.113802
2011-01-31 07:30:29 51°20.725 2°52.46 3.5742 2.730623 28.959886 0.113802
2011-01-31 07:30:34 51°20.742 2°52.46 3.5709 2.730834 28.964724 0.078977
2011-01-31 07:30:39 51°20.76 2°52.461 3.573 2.730939 28.964368 0.113802
2011-01-31 07:30:44 51°20.778 2°52.461 3.5755 2.731887 28.973847 0.113802
2011-01-31 07:30:49 51°20.795 2°52.461 3.5757 2.733466 28.990703 0.113802
2011-01-31 07:30:54 51°20.813 2°52.462 3.5758 2.733677 28.993955 0.113802
2011-01-31 07:30:59 51°20.831 2°52.462 3.572 2.733677 28.993955 0.113802
2011-01-31 07:31:04 51°20.848 2°52.462 3.5728 2.733887 28.998002 0.078977
2011-01-31 07:31:09 51°20.866 2°52.462 3.5769 2.733782 28.997567 0.113802
2011-01-31 07:31:14 51°20.883 2°52.462 3.5746 2.734519 29.004586 0.113802
2011-01-31 07:31:19 51°20.901 2°52.462 3.5688 2.735256 29.013988 0.078977
2011-01-31 07:31:24 51°20.919 2°52.463 3.5677 2.736098 29.022237 0.044153
2011-01-31 07:31:29 51°20.936 2°52.463 3.5703 2.736098 29.022237 0.044153
2011-01-31 07:31:33 51°20.95 2°52.463 3.5647 2.736309 29.022313 0.113802
2011-01-31 07:31:39 51°20.971 2°52.463 3.5579 2.737994 29.042783 0.113802
2011-01-31 07:31:44 51°20.989 2°52.463 3.5616 2.737993 29.041988 0.044153
2011-01-31 07:31:49 51°21.007 2°52.463 3.5513 2.737993 29.041988 0.078977
2011-01-31 07:31:54 51°21.024 2°52.463 3.5518 2.738309 29.048063 0.078977
2011-01-31 07:31:59 51°21.042 2°52.462 3.5483 2.738309 29.048063 0.078977
2011-01-31 07:32:04 51°21.06 2°52.463 3.5453 2.737994 29.045964 0.078977
2011-01-31 07:32:09 51°21.077 2°52.463 3.5412 2.737678 29.043069 0.078977
2011-01-31 07:32:14 51°21.095 2°52.463 3.5344 2.737257 29.04133 0.078977
2011-01-31 07:32:19 51°21.112 2°52.464 3.5335 2.737783 29.049867 0.078977
2011-01-31 07:32:24 51°21.13 2°52.464 3.5316 2.737046 29.042847 0.078977
2011-01-31 07:32:29 51°21.147 2°52.464 3.5333 2.737046 29.042847 0.078977
2011-01-31 07:32:34 51°21.165 2°52.464 3.535 2.73673 29.041542 0.044153
2011-01-31 07:32:39 51°21.183 2°52.464 3.5353 2.736098 29.036547 0.113802
2011-01-31 07:32:44 51°21.2 2°52.464 3.5365 2.735888 29.038063 0.044153
2011-01-31 07:32:49 51°21.218 2°52.464 3.5359 2.734624 29.028069 0.078977
2011-01-31 07:32:53 51°21.232 2°52.464 3.5409 2.733887 29.022636 0.113802
2011-01-31 07:32:59 51°21.253 2°52.464 3.5503 2.733887 29.022636 0.113802
2011-01-31 07:33:04 51°21.271 2°52.464 3.5535 2.733572 29.022125 0.113802
2011-01-31 07:33:09 51°21.288 2°52.465 3.5593 2.733361 29.022845 0.078977
2011-01-31 07:33:13 51°21.303 2°52.466 3.5605 2.734098 29.030666 0.078977
2011-01-31 07:33:19 51°21.324 2°52.468 3.5649 2.734835 29.038487 0.078977
2011-01-31 07:33:24 51°21.341 2°52.47 3.5723 2.735677 29.047539 0.113802
2011-01-31 07:33:29 51°21.359 2°52.472 3.5779 2.735677 29.047539 0.113802
2011-01-31 07:33:34 51°21.376 2°52.475 3.5845 2.737151 29.06318 0.044153
2011-01-31 07:33:39 51°21.393 2°52.478 3.5942 2.739573 29.086712 0.113802
2011-01-31 07:33:44 51°21.411 2°52.48 3.6025 2.7421 29.113067 0.113802
2011-01-31 07:33:49 51°21.428 2°52.483 3.6132 2.743995 29.130437 0.044153
2011-01-31 07:33:54 51°21.446 2°52.486 3.6187 2.745575 29.145708 0.044153
2011-01-31 07:33:59 51°21.463 2°52.488 3.6215 2.745575 29.145708 0.044153
2011-01-31 07:34:04 51°21.48 2°52.491 3.6287 2.74768 29.164735 0.078977
2011-01-31 07:34:09 51°21.497 2°52.493 3.638 2.749892 29.186586 0.078977
2011-01-31 07:34:14 51°21.515 2°52.496 3.6433 2.75284 29.213051 0.044153
2011-01-31 07:34:19 51°21.532 2°52.499 3.6476 2.756314 29.24806 0.078977
2011-01-31 07:34:24 51°21.55 2°52.501 3.6515 2.759789 29.279057 0.078977
2011-01-31 07:34:29 51°21.567 2°52.505 3.6583 2.759789 29.279057 0.078977
2011-01-31 07:34:34 51°21.585 2°52.507 3.6656 2.762948 29.308756 0.044153
2011-01-31 07:34:39 51°21.602 2°52.511 3.6798 2.766528 29.343367 0.044153
2011-01-31 07:34:44 51°21.619 2°52.513 3.6998 2.769476 29.372997 0.078977
2011-01-31 07:34:49 51°21.637 2°52.516 3.7338 2.773056 29.406788 0.009329
2011-01-31 07:34:53 51°21.651 2°52.518 3.7585 2.77611 29.434419 0.044153
2011-01-31 07:34:59 51°21.672 2°52.521 3.7769 2.77611 29.434419 0.044153
2011-01-31 07:35:04 51°21.689 2°52.523 3.786 2.778637 29.45911 0.078977
2011-01-31 07:35:09 51°21.707 2°52.526 3.7989 2.781374 29.483841 0.009329
2011-01-31 07:35:13 51°21.72 2°52.528 3.8114 2.784639 29.513907 0.078977
2011-01-31 07:35:19 51°21.741 2°52.53 3.82 2.789061 29.555875 0.009329
2011-01-31 07:35:24 51°21.759 2°52.533 3.8218 2.795906 29.618832 0.044153
2011-01-31 07:35:29 51°21.776 2°52.536 3.8229 2.795906 29.618832 0.044153
2011-01-31 07:35:33 51°21.79 2°52.538 3.821 2.804646 29.696582 0.009329
2011-01-31 07:35:39 51°21.811 2°52.542 3.8173 2.813491 29.78278 0.078977
2011-01-31 07:35:44 51°21.829 2°52.545 3.8148 2.820968 29.848894 0.044153
2011-01-31 07:35:49 51°21.846 2°52.548 3.8119 2.825706 29.889529 0.009329
2011-01-31 07:35:53 51°21.86 2°52.55 3.8119 2.831077 29.93669 0.044153
2011-01-31 07:35:59 51°21.881 2°52.554 3.8219 2.831077 29.93669 0.044153
2011-01-31 07:36:04 51°21.899 2°52.556 3.8345 2.836132 29.986657 0.009329
2011-01-31 07:36:09 51°21.916 2°52.558 3.8474 2.838343 30.005099 0.009329
2011-01-31 07:36:14 51°21.934 2°52.56 3.8562 2.839923 30.018617 0.044153
2011-01-31 07:36:19 51°21.951 2°52.562 3.8658 2.840976 30.031707 0.009329
2011-01-31 07:36:24 51°21.969 2°52.564 3.8655 2.840344 30.023527 0.009329
2011-01-31 07:36:29 51°21.987 2°52.566 3.8608 2.840344 30.023527 0.009329
2011-01-31 07:36:34 51°22.005 2°52.568 3.8579 2.839607 30.016566 0.009329
2011-01-31 07:36:39 51°22.022 2°52.571 3.8502 2.841924 30.040306 0.009329
2011-01-31 07:36:44 51°22.04 2°52.573 3.8445 2.844662 30.065686 0.044153
2011-01-31 07:36:49 51°22.058 2°52.575 3.8415 2.848137 30.098016 0.009329
2011-01-31 07:36:54 51°22.075 2°52.578 3.8398 2.852034 30.132791 0.044153
2011-01-31 07:36:59 51°22.093 2°52.581 3.8387 2.852034 30.132791 0.044153
2011-01-31 07:37:04 51°22.111 2°52.585 3.8375 2.855614 30.166325 0.009329
2011-01-31 07:37:09 51°22.128 2°52.59 3.8282 2.856878 30.177773 0.044153
2011-01-31 07:37:14 51°22.145 2°52.595 3.8231 2.856246 30.169593 0.009329
2011-01-31 07:37:19 51°22.163 2°52.599 3.8262 2.855614 30.164688 0.009329
2011-01-31 07:37:24 51°22.18 2°52.603 3.8605 2.854245 30.153649 0.044153
2011-01-31 07:37:29 51°22.197 2°52.606 3.8992 2.854245 30.153649 0.044153
2011-01-31 07:37:34 51°22.215 2°52.61 3.9406 2.854456 30.156921 0.009329
2011-01-31 07:37:39 51°22.232 2°52.613 3.9777 2.851928 30.130746 0.009329
2011-01-31 07:37:44 51°22.249 2°52.615 4.0053 2.853192 30.14547 0.044153
2011-01-31 07:37:49 51°22.267 2°52.618 4.0391 2.851612 30.131154 0.044153
2011-01-31 07:37:53 51°22.281 2°52.62 4.0731 2.849296 30.109063 -0.025495
2011-01-31 07:37:59 51°22.301 2°52.624 4.0985 2.849296 30.109063 -0.025495
2011-01-31 07:38:04 51°22.319 2°52.626 4.1156 2.850559 30.118066 0.009329
2011-01-31 07:38:09 51°22.336 2°52.629 4.1363 2.855509 30.161006 0.009329
2011-01-31 07:38:14 51°22.353 2°52.632 4.1548 2.863513 30.223915 0.044153
2011-01-31 07:38:19 51°22.371 2°52.634 4.1588 2.875203 30.327163 0.044153
2011-01-31 07:38:24 51°22.388 2°52.638 4.1663 2.88605 30.422118 0.044153
2011-01-31 07:38:29 51°22.405 2°52.64 4.1794 2.88605 30.422118 0.044153
2011-01-31 07:38:34 51°22.422 2°52.643 4.1921 2.895529 30.502682 0.078977
2011-01-31 07:38:39 51°22.439 2°52.646 4.1974 2.903533 30.551995 0.009329
2011-01-31 07:38:44 51°22.456 2°52.65 4.2011 2.913117 30.639343 0.044153
2011-01-31 07:38:49 51°22.473 2°52.652 4.207 2.921649 30.716868 0.044153
2011-01-31 07:38:54 51°22.49 2°52.655 4.2091 2.927547 30.761298 0.009329
2011-01-31 07:38:59 51°22.507 2°52.658 4.214 2.927547 30.761298 0.009329
2011-01-31 07:39:04 51°22.524 2°52.661 4.2127 2.932392 30.80341 0.078977
2011-01-31 07:39:09 51°22.542 2°52.663 4.2188 2.937342 30.849206 0.078977
2011-01-31 07:39:14 51°22.559 2°52.666 4.2209 2.941134 30.87989 0.078977
2011-01-31 07:39:19 51°22.576 2°52.667 4.2201 2.942714 30.888244 0.044153
2011-01-31 07:39:24 51°22.593 2°52.67 4.2222 2.945663 30.914119 0.078977
2011-01-31 07:39:29 51°22.61 2°52.672 4.2245 2.945663 30.914119 0.078977
2011-01-31 07:39:33 51°22.624 2°52.674 4.2246 2.947454 30.927393 0.044153
2011-01-31 07:39:39 51°22.644 2°52.676 4.2237 2.949139 30.940272 0.078977
2011-01-31 07:39:44 51°22.661 2°52.679 4.2227 2.949876 30.94549 0.044153
2011-01-31 07:39:49 51°22.679 2°52.681 4.2205 2.95114 30.955146 0.044153
2011-01-31 07:39:53 51°22.692 2°52.683 4.2188 2.95251 30.969344 0.009329
2011-01-31 07:39:59 51°22.713 2°52.687 4.2138 2.95251 30.969344 0.009329
2011-01-31 07:40:04 51°22.73 2°52.69 4.212 2.953036 30.97295 0.044153
2011-01-31 07:40:09 51°22.747 2°52.693 4.2072 2.954827 30.990363 0.009329
2011-01-31 07:40:14 51°22.764 2°52.695 4.2045 2.954195 30.98055 0.044153
2011-01-31 07:40:19 51°22.781 2°52.698 4.2023 2.954932 30.989089 0.078977
2011-01-31 07:40:24 51°22.797 2°52.701 4.2003 2.955564 30.996408 0.044153
2011-01-31 07:40:29 51°22.815 2°52.704 4.1983 2.955564 30.996408 0.044153
2011-01-31 07:40:34 51°22.832 2°52.707 4.1977 2.954511 30.985872 0.044153
2011-01-31 07:40:39 51°22.849 2°52.709 4.1984 2.954406 30.987147 0.044153
2011-01-31 07:40:44 51°22.866 2°52.711 4.1985 2.954195 30.98637 0.044153
2011-01-31 07:40:49 51°22.883 2°52.714 4.1989 2.953668 30.982764 0.009329
2011-01-31 07:40:53 51°22.897 2°52.715 4.1999 2.95251 30.972669 0.009329
2011-01-31 07:40:59 51°22.917 2°52.718 4.1988 2.95251 30.972669 0.009329
2011-01-31 07:41:04 51°22.934 2°52.72 4.2028 2.952404 30.974774 0.009329
2011-01-31 07:41:09 51°22.951 2°52.722 4.2036 2.951351 30.965897 0.044153
2011-01-31 07:41:14 51°22.968 2°52.724 4.2019 2.951983 30.973219 0.009329
2011-01-31 07:41:19 51°22.985 2°52.725 4.2015 2.951456 30.969612 0.044153
2011-01-31 07:41:24 51°23.002 2°52.727 4.2021 2.951351 30.968392 0.009329
2011-01-31 07:41:29 51°23.019 2°52.73 4.1994 2.951351 30.968392 0.009329
2011-01-31 07:41:34 51°23.036 2°52.733 4.1992 2.951246 30.968003 0.009329
2011-01-31 07:41:39 51°23.053 2°52.735 4.198 2.95114 30.965119 0.009329
2011-01-31 07:41:44 51°23.07 2°52.738 4.1961 2.952088 30.976103 0.009329
2011-01-31 07:41:49 51°23.087 2°52.739 4.1974 2.951772 30.972442 0.009329
2011-01-31 07:41:54 51°23.104 2°52.741 4.1953 2.952088 30.97444 0.044153
2011-01-31 07:41:59 51°23.121 2°52.742 4.1943 2.952088 30.97444 0.044153
2011-01-31 07:42:04 51°23.138 2°52.744 4.1944 2.951878 30.971999 0.009329
2011-01-31 07:42:09 51°23.155 2°52.746 4.1931 2.953036 30.984591 0.009329
2011-01-31 07:42:14 51°23.172 2°52.747 4.1902 2.952931 30.984203 0.009329
2011-01-31 07:42:19 51°23.19 2°52.749 4.1902 2.951667 30.972053 0.009329
2011-01-31 07:42:24 51°23.207 2°52.751 4.1865 2.951351 30.969223 0.009329
2011-01-31 07:42:29 51°23.224 2°52.752 4.1868 2.951351 30.969223 0.009329
2011-01-31 07:42:34 51°23.241 2°52.754 4.1854 2.951878 30.976157 0.009329
2011-01-31 07:42:39 51°23.258 2°52.756 4.1823 2.951667 30.974548 0.009329
2011-01-31 07:42:44 51°23.275 2°52.758 4.1815 2.952089 30.981926 -0.025495
2011-01-31 07:42:49 51°23.292 2°52.761 4.1805 2.951878 30.979485 0.044153
2011-01-31 07:42:53 51°23.306 2°52.762 4.1787 2.951351 30.97255 0.009329
2011-01-31 07:42:59 51°23.326 2°52.765 4.1786 2.951351 30.97255 0.009329
2011-01-31 07:43:04 51°23.343 2°52.767 4.176 2.951983 30.982369 0.044153
2011-01-31 07:43:09 51°23.36 2°52.769 4.1736 2.951562 30.97915 -0.025495
2011-01-31 07:43:14 51°23.377 2°52.771 4.17 2.950825 30.971437 -0.025495
2011-01-31 07:43:19 51°23.394 2°52.773 4.1649 2.951351 30.980037 0.044153
2011-01-31 07:43:24 51°23.411 2°52.776 4.1631 2.951141 30.97926 -0.025495
2011-01-31 07:43:29 51°23.428 2°52.778 4.1562 2.951141 30.97926 -0.025495
2011-01-31 07:43:33 51°23.441 2°52.78 4.1495 2.950403 30.971545 0.009329
2011-01-31 07:43:39 51°23.461 2°52.783 4.1426 2.950614 30.976483 0.009329
2011-01-31 07:43:44 51°23.478 2°52.785 4.1389 2.950825 30.982255 -0.025495
2011-01-31 07:43:49 51°23.495 2°52.788 4.1355 2.950614 30.97898 -0.025495
2011-01-31 07:43:53 51°23.509 2°52.789 4.1238 2.950298 30.979479 0.009329
2011-01-31 07:43:59 51°23.529 2°52.791 4.1186 2.950298 30.979479 0.009329
2011-01-31 07:44:04 51°23.546 2°52.794 4.1146 2.949561 30.976757 -0.025495
2011-01-31 07:44:09 51°23.563 2°52.796 4.1072 2.948191 30.963375 -0.025495
2011-01-31 07:44:13 51°23.577 2°52.798 4.1064 2.946401 30.949266 -0.025495
2011-01-31 07:44:19 51°23.597 2°52.8 4.1086 2.945137 30.938766 -0.025495
2011-01-31 07:44:24 51°23.614 2°52.803 4.1074 2.943557 30.926262 0.009329
2011-01-31 07:44:29 51°23.631 2°52.805 4.1048 2.943557 30.926262 0.009329
2011-01-31 07:44:34 51°23.648 2°52.808 4.1072 2.942925 30.926416 0.009329
2011-01-31 07:44:39 51°23.665 2°52.81 4.1031 2.941029 30.911072 0.009329
2011-01-31 07:44:44 51°23.682 2°52.813 4.1049 2.93966 30.901835 0.009329
2011-01-31 07:44:49 51°23.7 2°52.815 4.1065 2.938291 30.890101 -0.025495
2011-01-31 07:44:54 51°23.717 2°52.818 4.1082 2.936711 30.875919 -0.025495
2011-01-31 07:44:59 51°23.734 2°52.821 4.114 2.936711 30.875919 -0.025495
2011-01-31 07:45:04 51°23.751 2°52.823 4.1193 2.936079 30.870246 -0.025495
2011-01-31 07:45:09 51°23.768 2°52.828 4.123 2.935868 30.869463 0.009329
2011-01-31 07:45:14 51°23.785 2°52.832 4.1252 2.935236 30.867114 -0.025495
2011-01-31 07:45:19 51°23.801 2°52.838 4.1304 2.935973 30.874842 0.009329
2011-01-31 07:45:24 51°23.818 2°52.843 4.1407 2.936289 30.877679 0.009329
2011-01-31 07:45:29 51°23.834 2°52.849 4.1583 2.936289 30.877679 0.009329
2011-01-31 07:45:34 51°23.851 2°52.854 4.1737 2.936184 30.875625 -0.025495
2011-01-31 07:45:39 51°23.868 2°52.859 4.1827 2.937027 30.882913 -0.025495
2011-01-31 07:45:44 51°23.884 2°52.865 4.1947 2.938501 30.897536 0.009329
2011-01-31 07:45:49 51°23.901 2°52.871 4.2044 2.939871 30.909271 -0.025495
2011-01-31 07:45:54 51°23.917 2°52.876 4.2102 2.940608 30.914501 0.009329
2011-01-31 07:45:59 51°23.934 2°52.882 4.2131 2.940608 30.914501 0.009329
2011-01-31 07:46:04 51°23.951 2°52.887 4.2135 2.943136 30.938016 0.009329
2011-01-31 07:46:09 51°23.967 2°52.893 4.2129 2.944821 30.94675 0.009329
2011-01-31 07:46:14 51°23.984 2°52.898 4.2118 2.949772 30.993361 -0.025495
2011-01-31 07:46:19 51°24 2°52.904 4.21 2.952299 31.010184 0.009329
2011-01-31 07:46:24 51°24.017 2°52.909 4.2117 2.95725 31.054256 0.009329
2011-01-31 07:46:29 51°24.033 2°52.915 4.2117 2.95725 31.054256 0.009329
2011-01-31 07:46:34 51°24.049 2°52.921 4.2138 2.959778 31.073555 0.009329
2011-01-31 07:46:39 51°24.066 2°52.927 4.2159 2.962517 31.099463 0.009329
2011-01-31 07:46:44 51°24.082 2°52.933 4.22 2.963991 31.110712 -0.025495
2011-01-31 07:46:49 51°24.099 2°52.939 4.2235 2.965571 31.126522 0.009329
2011-01-31 07:46:54 51°24.115 2°52.945 4.2286 2.966098 31.131791 0.009329
2011-01-31 07:46:59 51°24.132 2°52.95 4.2325 2.966098 31.131791 0.009329
2011-01-31 07:47:04 51°24.148 2°52.956 4.2357 2.966203 31.132177 0.009329
2011-01-31 07:47:09 51°24.165 2°52.962 4.2395 2.965466 31.121959 0.009329
2011-01-31 07:47:14 51°24.182 2°52.968 4.2415 2.967151 31.141494 0.009329
2011-01-31 07:47:19 51°24.198 2°52.973 4.2427 2.967467 31.141813 -0.025495
2011-01-31 07:47:24 51°24.215 2°52.979 4.2456 2.967889 31.143354 -0.025495
2011-01-31 07:47:29 51°24.231 2°52.985 4.2462 2.967889 31.143354 -0.025495
2011-01-31 07:47:33 51°24.245 2°52.989 4.2485 2.969047 31.155111 0.044153
2011-01-31 07:47:39 51°24.264 2°52.995 4.2468 2.96989 31.159024 0.009329
2011-01-31 07:47:44 51°24.281 2°53 4.2493 2.970522 31.162168 -0.025495
2011-01-31 07:47:49 51°24.298 2°53.005 4.2467 2.971259 31.166531 -0.025495
2011-01-31 07:47:54 51°24.315 2°53.01 4.2465 2.972313 31.174554 0.044153
2011-01-31 07:47:59 51°24.331 2°53.015 4.2439 2.972313 31.174554 0.044153
2011-01-31 07:48:04 51°24.348 2°53.02 4.2386 2.973998 31.189897 0.044153
2011-01-31 07:48:09 51°24.365 2°53.025 4.2365 2.973787 31.184949 0.009329
2011-01-31 07:48:14 51°24.381 2°53.029 4.232 2.973471 31.17878 0.009329
2011-01-31 07:48:19 51°24.398 2°53.032 4.2304 2.974209 31.185648 0.044153
2011-01-31 07:48:24 51°24.415 2°53.035 4.2301 2.974946 31.193352 0.009329
2011-01-31 07:48:29 51°24.432 2°53.038 4.2294 2.974946 31.193352 0.009329
2011-01-31 07:48:33 51°24.446 2°53.04 4.2313 2.975157 31.194956 -0.025495
2011-01-31 07:48:39 51°24.466 2°53.043 4.2284 2.974841 31.191296 0.009329
2011-01-31 07:48:44 51°24.483 2°53.045 4.2278 2.973787 31.179933 0.009329
2011-01-31 07:48:49 51°24.5 2°53.048 4.23 2.973261 31.177176 -0.025495
2011-01-31 07:48:54 51°24.517 2°53.05 4.2245 2.973471 31.183797 -0.025495
2011-01-31 07:48:59 51°24.534 2°53.053 4.2235 2.973471 31.183797 -0.025495
2011-01-31 07:49:04 51°24.551 2°53.056 4.2242 2.972839 31.173968 0.009329
2011-01-31 07:49:09 51°24.568 2°53.059 4.2205 2.972945 31.18104 -0.025495
2011-01-31 07:49:14 51°24.585 2°53.061 4.2226 2.971786 31.166782 0.044153
2011-01-31 07:49:19 51°24.602 2°53.064 4.2245 2.971154 31.160296 0.009329
2011-01-31 07:49:24 51°24.619 2°53.066 4.2254 2.971154 31.160296 -0.025495
2011-01-31 07:49:29 51°24.636 2°53.068 4.2278 2.971154 31.160296 -0.025495
2011-01-31 07:49:34 51°24.653 2°53.069 4.2251 2.971786 31.169289 0.009329
2011-01-31 07:49:39 51°24.67 2°53.071 4.225 2.970627 31.157538 0.009329
2011-01-31 07:49:44 51°24.687 2°53.073 4.2259 2.970417 31.155933 0.044153
2011-01-31 07:49:49 51°24.704 2°53.075 4.2188 2.970838 31.162486 0.009329
2011-01-31 07:49:54 51°24.721 2°53.076 4.2126 2.970311 31.157219 -0.025495
2011-01-31 07:49:59 51°24.738 2°53.078 4.199 2.970311 31.157219 -0.025495
2011-01-31 07:50:04 51°24.755 2°53.08 4.191 2.970943 31.165378 0.044153
2011-01-31 07:50:09 51°24.772 2°53.082 4.1809 2.97147 31.169808 0.009329
2011-01-31 07:50:14 51°24.789 2°53.084 4.1694 2.972102 31.177967 0.009329
2011-01-31 07:50:19 51°24.806 2°53.086 4.1507 2.970838 31.165829 0.044153
2011-01-31 07:50:24 51°24.823 2°53.088 4.1437 2.971259 31.172384 0.009329
2011-01-31 07:50:29 51°24.84 2°53.09 4.1316 2.971259 31.172384 0.009329
2011-01-31 07:50:34 51°24.857 2°53.092 4.1199 2.970417 31.164291 0.009329
2011-01-31 07:50:39 51°24.874 2°53.095 4.109 2.968521 31.148171 0.009329
2011-01-31 07:50:44 51°24.891 2°53.097 4.0865 2.966625 31.134553 -0.025495
2011-01-31 07:50:49 51°24.908 2°53.099 4.0865 2.964097 31.116946 -0.025495
2011-01-31 07:50:54 51°24.924 2°53.101 4.0793 2.959673 31.080682 -0.025495
2011-01-31 07:50:59 51°24.941 2°53.103 4.0817 2.959673 31.080682 -0.025495
2011-01-31 07:51:04 51°24.958 2°53.105 4.073 2.956829 31.059384 -0.025495
2011-01-31 07:51:09 51°24.975 2°53.107 4.0716 2.95409 31.032622 0.009329
2011-01-31 07:51:14 51°24.992 2°53.109 4.0702 2.951036 31.01303 0.009329
2011-01-31 07:51:19 51°25.009 2°53.111 4.0708 2.94756 30.984363 -0.025495
2011-01-31 07:51:24 51°25.026 2°53.112 4.0719 2.943979 30.956126 0.009329
2011-01-31 07:51:29 51°25.043 2°53.114 4.0723 2.943979 30.956126 0.009329
2011-01-31 07:51:34 51°25.06 2°53.115 4.0749 2.940187 30.92043 0.009329
2011-01-31 07:51:39 51°25.077 2°53.117 4.0691 2.938396 30.907963 -0.025495
2011-01-31 07:51:44 51°25.094 2°53.118 4.0677 2.937027 30.897887 -0.025495
2011-01-31 07:51:49 51°25.11 2°53.12 4.0673 2.93629 30.89515 0.009329
2011-01-31 07:51:54 51°25.127 2°53.122 4.0608 2.936079 30.893535 -0.025495
2011-01-31 07:51:59 51°25.144 2°53.124 4.0676 2.936079 30.893535 -0.025495
2011-01-31 07:52:04 51°25.161 2°53.126 4.0722 2.936184 30.896424 -0.025495
2011-01-31 07:52:09 51°25.178 2°53.128 4.0771 2.935342 30.887467 0.009329
2011-01-31 07:52:14 51°25.195 2°53.13 4.081 2.93471 30.880958 0.009329
2011-01-31 07:52:19 51°25.212 2°53.132 4.0851 2.935342 30.889965 0.009329
2011-01-31 07:52:24 51°25.229 2°53.133 4.0841 2.935658 30.896966 -0.025495
2011-01-31 07:52:29 51°25.245 2°53.135 4.0864 2.935658 30.896966 -0.025495
2011-01-31 07:52:34 51°25.263 2°53.136 4.0813 2.934499 30.886834 -0.025495
2011-01-31 07:52:39 51°25.279 2°53.138 4.0836 2.934394 30.887275 -0.025495
2011-01-31 07:52:44 51°25.296 2°53.14 4.0822 2.934183 30.883163 0.009329
2011-01-31 07:52:49 51°25.313 2°53.142 4.0805 2.93492 30.888399 -0.025495
2011-01-31 07:52:54 51°25.33 2°53.144 4.0797 2.937343 30.913216 -0.025495
2011-01-31 07:52:59 51°25.347 2°53.146 4.0812 2.937343 30.913216 -0.025495
2011-01-31 07:53:04 51°25.364 2°53.148 4.0838 2.93808 30.919283 -0.025495
2011-01-31 07:53:09 51°25.38 2°53.15 4.0806 2.939239 30.931078 0.009329
2011-01-31 07:53:14 51°25.397 2°53.151 4.0838 2.939766 30.936363 -0.025495
2011-01-31 07:53:19 51°25.414 2°53.153 4.0876 2.940082 30.941702 -0.060319
2011-01-31 07:53:24 51°25.431 2°53.155 4.0886 2.939555 30.935583 -0.025495
2011-01-31 07:53:29 51°25.448 2°53.157 4.0895 2.939555 30.935583 -0.025495
2011-01-31 07:53:33 51°25.462 2°53.159 4.0921 2.940082 30.94337 0.009329
2011-01-31 07:53:39 51°25.482 2°53.161 4.0992 2.940082 30.941702 -0.025495
2011-01-31 07:53:44 51°25.499 2°53.163 4.1015 2.940503 30.947431 0.009329
2011-01-31 07:53:49 51°25.516 2°53.165 4.1046 2.940819 30.951937 -0.025495
2011-01-31 07:53:54 51°25.533 2°53.167 4.1013 2.94124 30.955999 0.009329
2011-01-31 07:53:59 51°25.55 2°53.169 4.0984 2.94124 30.955999 0.009329
2011-01-31 07:54:04 51°25.566 2°53.171 4.0962 2.941662 30.959226 -0.060319
2011-01-31 07:54:09 51°25.584 2°53.172 4.0914 2.941872 30.959172 -0.025495
2011-01-31 07:54:14 51°25.601 2°53.175 4.0912 2.942504 30.964846 0.009329
2011-01-31 07:54:19 51°25.617 2°53.177 4.0935 2.943347 30.971299 0.009329
2011-01-31 07:54:24 51°25.634 2°53.179 4.0928 2.944716 30.983035 -0.025495
2011-01-31 07:54:29 51°25.651 2°53.181 4.09 2.944716 30.983035 -0.025495
2011-01-31 07:54:34 51°25.668 2°53.183 4.0862 2.945348 30.989542 0.009329
2011-01-31 07:54:39 51°25.685 2°53.185 4.0801 2.945137 30.987095 0.009329
2011-01-31 07:54:44 51°25.702 2°53.187 4.0841 2.943979 30.974469 -0.025495
2011-01-31 07:54:49 51°25.719 2°53.189 4.0815 2.943768 30.974525 0.009329
2011-01-31 07:54:54 51°25.736 2°53.191 4.0872 2.943663 30.97497 0.009329
2011-01-31 07:54:59 51°25.753 2°53.194 4.0929 2.943663 30.97497 0.009329
2011-01-31 07:55:04 51°25.77 2°53.197 4.0974 2.943663 30.973301 -0.025495
2011-01-31 07:55:09 51°25.787 2°53.2 4.097 2.943136 30.968852 -0.060319
2011-01-31 07:55:14 51°25.803 2°53.203 4.0989 2.942925 30.969741 -0.025495
2011-01-31 07:55:19 51°25.82 2°53.206 4.1024 2.942083 30.959951 0.009329
2011-01-31 07:55:24 51°25.837 2°53.209 4.1057 2.941767 30.957114 -0.025495
2011-01-31 07:55:29 51°25.854 2°53.212 4.1165 2.941767 30.957114 -0.025495
2011-01-31 07:55:33 51°25.868 2°53.214 4.1258 2.94124 30.951829 0.009329
2011-01-31 07:55:39 51°25.888 2°53.217 4.1352 2.941977 30.957059 0.009329
2011-01-31 07:55:44 51°25.905 2°53.219 4.1425 2.94282 30.961844 -0.025495
2011-01-31 07:55:49 51°25.922 2°53.222 4.1404 2.943768 30.971188 -0.025495
2011-01-31 07:55:54 51°25.939 2°53.224 4.1406 2.944716 30.979697 -0.025495
2011-01-31 07:55:59 51°25.956 2°53.228 4.1421 2.944716 30.979697 -0.025495
2011-01-31 07:56:04 51°25.973 2°53.231 4.1364 2.945559 30.986147 -0.025495
2011-01-31 07:56:09 51°25.99 2°53.233 4.1321 2.947139 31.000326 0.009329
2011-01-31 07:56:14 51°26.007 2°53.236 4.1313 2.94914 31.016055 0.009329
2011-01-31 07:56:19 51°26.024 2°53.239 4.1317 2.951036 31.027216 -0.025495
2011-01-31 07:56:24 51°26.042 2°53.242 4.1249 2.953142 31.045827 -0.025495
2011-01-31 07:56:29 51°26.059 2°53.244 4.1223 2.953142 31.045827 -0.025495
2011-01-31 07:56:34 51°26.076 2°53.247 4.1206 2.954301 31.05343 0.009329
2011-01-31 07:56:39 51°26.093 2°53.25 4.1147 2.954722 31.05665 -0.025495
2011-01-31 07:56:44 51°26.11 2°53.253 4.1171 2.954301 31.05343 0.009329
2011-01-31 07:56:49 51°26.127 2°53.256 4.1223 2.953774 31.047317 -0.025495
2011-01-31 07:56:53 51°26.141 2°53.258 4.1206 2.954301 31.054265 -0.025495
2011-01-31 07:56:59 51°26.162 2°53.261 4.1269 2.954301 31.054265 -0.025495
2011-01-31 07:57:04 51°26.179 2°53.264 4.1293 2.953669 31.04693 -0.025495
2011-01-31 07:57:09 51°26.196 2°53.266 4.1332 2.952616 31.039713 -0.025495
2011-01-31 07:57:14 51°26.214 2°53.269 4.1407 2.952405 31.039773 0.009329
2011-01-31 07:57:19 51°26.231 2°53.271 4.1424 2.951141 31.028439 -0.025495
2011-01-31 07:57:24 51°26.248 2°53.274 4.1541 2.950825 31.02644 0.009329
2011-01-31 07:57:29 51°26.266 2°53.277 4.1637 2.950825 31.02644 0.009329
2011-01-31 07:57:34 51°26.283 2°53.28 4.1786 2.950614 31.024829 -0.025495
2011-01-31 07:57:39 51°26.3 2°53.282 4.1868 2.950825 31.02644 -0.025495
2011-01-31 07:57:44 51°26.318 2°53.285 4.1927 2.951457 31.032108 0.009329
2011-01-31 07:57:49 51°26.335 2°53.287 4.1935 2.952826 31.043829 -0.025495
2011-01-31 07:57:54 51°26.352 2°53.29 4.1958 2.954196 31.058055 -0.025495
2011-01-31 07:57:59 51°26.369 2°53.293 4.2035 2.954196 31.058055 -0.025495
2011-01-31 07:58:04 51°26.387 2°53.296 4.2075 2.954933 31.059095 0.009329
2011-01-31 07:58:09 51°26.404 2°53.298 4.2134 2.956408 31.069527 0.009329
2011-01-31 07:58:14 51°26.421 2°53.301 4.2184 2.959041 31.090893 -0.025495
2011-01-31 07:58:19 51°26.438 2°53.304 4.2204 2.961674 31.109743 0.009329
2011-01-31 07:58:24 51°26.456 2°53.306 4.2153 2.963149 31.119325 0.009329
2011-01-31 07:58:29 51°26.473 2°53.309 4.2146 2.963149 31.119325 0.009329
2011-01-31 07:58:34 51°26.49 2°53.311 4.2189 2.965361 31.139126 0.009329
2011-01-31 07:58:39 51°26.508 2°53.314 4.2176 2.965887 31.141053 -0.025495
2011-01-31 07:58:44 51°26.525 2°53.316 4.2156 2.967362 31.150625 0.009329
2011-01-31 07:58:49 51°26.542 2°53.319 4.2125 2.968731 31.160646 -0.025495
2011-01-31 07:58:54 51°26.559 2°53.322 4.2126 2.96989 31.16655 0.009329
2011-01-31 07:58:59 51°26.577 2°53.325 4.2143 2.96989 31.16655 0.009329
2011-01-31 07:59:04 51°26.594 2°53.328 4.2152 2.970311 31.168924 0.009329
2011-01-31 07:59:09 51°26.611 2°53.331 4.2166 2.970522 31.16802 -0.025495
2011-01-31 07:59:14 51°26.628 2°53.333 4.2164 2.970838 31.173355 -0.025495
2011-01-31 07:59:19 51°26.646 2°53.336 4.2175 2.970522 31.168857 -0.025495
2011-01-31 07:59:24 51°26.663 2°53.339 4.2159 2.971154 31.177018 0.009329
2011-01-31 07:59:29 51°26.68 2°53.341 4.215 2.971154 31.177018 0.009329
2011-01-31 07:59:34 51°26.698 2°53.344 4.2104 2.971259 31.179075 -0.025495
2011-01-31 07:59:39 51°26.715 2°53.347 4.205 2.970627 31.170077 -0.025495
2011-01-31 07:59:44 51°26.732 2°53.349 4.1991 2.970838 31.171683 0.009329
2011-01-31 07:59:49 51°26.75 2°53.352 4.1917 2.971891 31.183054 0.009329
2011-01-31 07:59:54 51°26.767 2°53.355 4.1891 2.971786 31.18016 0.009329
2011-01-31 07:59:59 51°26.784 2°53.358 4.1913 2.971786 31.18016 0.009329
2011-01-31 08:00:04 51°26.801 2°53.362 4.1859 2.971786 31.178487 -0.025495
2011-01-31 08:00:09 51°26.818 2°53.366 4.1869 2.971681 31.178939 -0.060319
2011-01-31 08:00:13 51°26.832 2°53.369 4.1918 2.970943 31.172903 0.009329
2011-01-31 08:00:19 51°26.853 2°53.373 4.1965 2.970733 31.173808 -0.025495
2011-01-31 08:00:24 51°26.87 2°53.376 4.1951 2.969469 31.165012 0.009329
2011-01-31 08:00:29 51°26.887 2°53.379 4.1992 2.969469 31.165012 0.009329
2011-01-31 08:00:34 51°26.904 2°53.382 4.2042 2.968942 31.163088 0.009329
2011-01-31 08:00:39 51°26.922 2°53.385 4.2071 2.967257 31.146059 -0.025495
2011-01-31 08:00:44 51°26.939 2°53.388 4.2078 2.967362 31.149789 0.009329
2011-01-31 08:00:49 51°26.956 2°53.39 4.2084 2.967994 31.159626 0.009329
2011-01-31 08:00:54 51°26.973 2°53.393 4.209 2.96831 31.164127 0.009329
2011-01-31 08:00:59 51°26.991 2°53.396 4.2079 2.96831 31.164127 0.009329
2011-01-31 08:01:04 51°27.008 2°53.398 4.2094 2.970206 31.183602 -0.025495
2011-01-31 08:01:09 51°27.025 2°53.402 4.2097 2.97147 31.197423 0.009329
2011-01-31 08:01:14 51°27.042 2°53.404 4.2146 2.973156 31.213615 0.009329
2011-01-31 08:01:19 51°27.059 2°53.407 4.2128 2.975157 31.234309 -0.025495
2011-01-31 08:01:24 51°27.077 2°53.41 4.2148 2.97621 31.247363 -0.025495
2011-01-31 08:01:29 51°27.094 2°53.413 4.2134 2.97621 31.247363 -0.025495
2011-01-31 08:01:33 51°27.108 2°53.415 4.2161 2.977474 31.258667 -0.025495
2011-01-31 08:01:39 51°27.128 2°53.419 4.2128 2.978212 31.266378 0.009329
2011-01-31 08:01:44 51°27.145 2°53.422 4.2148 2.978212 31.2647 0.009329
2011-01-31 08:01:49 51°27.163 2°53.424 4.2137 2.979265 31.278594 0.009329
2011-01-31 08:01:54 51°27.18 2°53.427 4.2124 2.980424 31.289513 -0.025495
2011-01-31 08:01:59 51°27.197 2°53.429 4.2108 2.980424 31.289513 -0.025495
2011-01-31 08:02:04 51°27.214 2°53.431 4.2086 2.981056 31.296003 0.009329
2011-01-31 08:02:09 51°27.232 2°53.433 4.2004 2.981793 31.305394 0.009329
2011-01-31 08:02:14 51°27.249 2°53.436 4.1956 2.982636 31.313487 0.009329
2011-01-31 08:02:19 51°27.266 2°53.438 4.1996 2.983057 31.319214 0.009329
2011-01-31 08:02:24 51°27.283 2°53.441 4.2003 2.984005 31.328529 0.009329
2011-01-31 08:02:29 51°27.301 2°53.443 4.1932 2.984005 31.328529 0.009329
2011-01-31 08:02:34 51°27.318 2°53.446 4.1897 2.983795 31.326085 -0.025495
2011-01-31 08:02:39 51°27.335 2°53.449 4.1885 2.983689 31.327386 -0.025495
2011-01-31 08:02:44 51°27.352 2°53.453 4.181 2.983689 31.329908 0.009329
2011-01-31 08:02:49 51°27.37 2°53.456 4.1789 2.982847 31.322655 -0.025495
2011-01-31 08:02:54 51°27.387 2°53.459 4.1774 2.982215 31.320368 0.009329
2011-01-31 08:02:59 51°27.404 2°53.462 4.1751 2.982215 31.320368 0.009329
2011-01-31 08:03:04 51°27.421 2°53.465 4.1779 2.981793 31.31548 0.009329
2011-01-31 08:03:09 51°27.438 2°53.469 4.1889 2.982004 31.320446 0.009329
2011-01-31 08:03:14 51°27.456 2°53.473 4.1953 2.982004 31.32381 -0.025495
2011-01-31 08:03:19 51°27.472 2°53.478 4.2034 2.981372 31.319 -0.025495
2011-01-31 08:03:24 51°27.489 2°53.483 4.2108 2.98074 31.316711 -0.060319
2011-01-31 08:03:29 51°27.506 2°53.488 4.2307 2.98074 31.316711 -0.060319
2011-01-31 08:03:33 51°27.52 2°53.491 4.2594 2.980003 31.312359 0.009329
2011-01-31 08:03:39 51°27.54 2°53.496 4.2772 2.979371 31.305864 0.009329
2011-01-31 08:03:44 51°27.557 2°53.501 4.3105 2.98053 31.321838 -0.060319
2011-01-31 08:03:49 51°27.574 2°53.505 4.3397 2.981794 31.332303 -0.025495
2011-01-31 08:03:54 51°27.591 2°53.508 4.3605 2.9839 31.350864 -0.025495
2011-01-31 08:03:59 51°27.608 2°53.511 4.3773 2.9839 31.350864 -0.025495
2011-01-31 08:04:04 51°27.625 2°53.515 4.3925 2.986744 31.376294 0.009329
2011-01-31 08:04:09 51°27.642 2°53.519 4.4108 2.989483 31.39628 0.009329
2011-01-31 08:04:14 51°27.659 2°53.522 4.4261 2.993697 31.428303 -0.025495
2011-01-31 08:04:19 51°27.677 2°53.526 4.4333 3.001281 31.494326 -0.025495
2011-01-31 08:04:24 51°27.693 2°53.529 4.4397 3.00876 31.555689 0.009329
2011-01-31 08:04:29 51°27.711 2°53.532 4.4461 3.00876 31.555689 0.009329
2011-01-31 08:04:34 51°27.728 2°53.536 4.452 3.014238 31.596338 0.009329
2011-01-31 08:04:39 51°27.744 2°53.54 4.459 3.020137 31.637594 0.009329
2011-01-31 08:04:44 51°27.762 2°53.543 4.4623 3.024772 31.66925 -0.025495
2011-01-31 08:04:49 51°27.778 2°53.547 4.4655 3.031093 31.724607 0.009329
2011-01-31 08:04:53 51°27.792 2°53.55 4.4672 3.035517 31.757994 0.009329
2011-01-31 08:04:59 51°27.812 2°53.555 4.4689 3.035517 31.757994 0.009329
2011-01-31 08:05:04 51°27.829 2°53.559 4.4707 3.039626 31.792789 0.044153
2011-01-31 08:05:09 51°27.846 2°53.563 4.4713 3.04226 31.811364 0.009329
2011-01-31 08:05:14 51°27.863 2°53.566 4.4709 3.044577 31.828823 0.009329
2011-01-31 08:05:19 51°27.88 2°53.57 4.4683 3.04679 31.845905 -0.025495
2011-01-31 08:05:24 51°27.897 2°53.573 4.4668 3.048897 31.862613 0.044153
2011-01-31 08:05:29 51°27.914 2°53.576 4.466 3.048897 31.862613 0.044153
2011-01-31 08:05:34 51°27.931 2°53.579 4.4661 3.050371 31.875409 0.009329
2011-01-31 08:05:39 51°27.948 2°53.582 4.464 3.050793 31.875183 0.009329
2011-01-31 08:05:44 51°27.965 2°53.585 4.463 3.051636 31.882372 0.009329
2011-01-31 08:05:49 51°27.982 2°53.589 4.4579 3.051952 31.884325 0.009329
2011-01-31 08:05:54 51°27.999 2°53.592 4.4607 3.051952 31.883476 0.009329
2011-01-31 08:05:59 51°28.016 2°53.596 4.4595 3.051952 31.883476 0.009329
2011-01-31 08:06:04 51°28.033 2°53.598 4.4559 3.053005 31.896494 0.009329
2011-01-31 08:06:09 51°28.05 2°53.602 4.4529 3.052689 31.892843 0.009329
2011-01-31 08:06:14 51°28.067 2°53.605 4.4534 3.051846 31.883957 -0.025495
2011-01-31 08:06:19 51°28.083 2°53.608 4.4504 3.051741 31.883589 0.009329
2011-01-31 08:06:24 51°28.1 2°53.611 4.4485 3.05153 31.882004 0.009329
2011-01-31 08:06:29 51°28.117 2°53.614 4.4449 3.05153 31.882004 0.009329
2011-01-31 08:06:33 51°28.131 2°53.617 4.4477 3.050898 31.875551 0.009329
2011-01-31 08:06:39 51°28.151 2°53.621 4.4454 3.050161 31.86873 0.009329
2011-01-31 08:06:44 51°28.168 2°53.625 4.4445 3.050371 31.871164 0.009329
2011-01-31 08:06:49 51°28.185 2°53.628 4.444 3.049845 31.866777 -0.025495
2011-01-31 08:06:53 51°28.198 2°53.631 4.4429 3.049002 31.859586 -0.025495
2011-01-31 08:06:59 51°28.218 2°53.634 4.4395 3.049002 31.859586 -0.025495
2011-01-31 08:07:04 51°28.235 2°53.637 4.4378 3.048686 31.857632 -0.025495
2011-01-31 08:07:09 51°28.252 2°53.64 4.4424 3.049423 31.868699 0.009329
2011-01-31 08:07:14 51°28.269 2°53.643 4.4368 3.048475 31.859442 0.009329
2011-01-31 08:07:19 51°28.286 2°53.646 4.4394 3.048054 31.85627 0.009329
2011-01-31 08:07:24 51°28.303 2°53.649 4.4388 3.047 31.844945 -0.025495
2011-01-31 08:07:29 51°28.32 2°53.652 4.4369 3.047 31.844945 -0.025495
2011-01-31 08:07:34 51°28.338 2°53.655 4.4357 3.046579 31.841773 0.009329
2011-01-31 08:07:39 51°28.354 2°53.659 4.4336 3.045947 31.836166 -0.025495
2011-01-31 08:07:44 51°28.372 2°53.662 4.431 3.04542 31.830927 -0.025495
2011-01-31 08:07:49 51°28.389 2°53.666 4.4264 3.044999 31.826906 -0.025495
2011-01-31 08:07:54 51°28.406 2°53.669 4.4261 3.044367 31.819602 0.009329
2011-01-31 08:07:59 51°28.422 2°53.673 4.4219 3.044367 31.819602 0.009329
2011-01-31 08:08:04 51°28.44 2°53.676 4.4176 3.04405 31.816798 0.009329
2011-01-31 08:08:09 51°28.457 2°53.68 4.4187 3.043629 31.811928 0.009329
2011-01-31 08:08:14 51°28.474 2°53.683 4.4207 3.043629 31.814472 -0.025495
2011-01-31 08:08:19 51°28.491 2°53.687 4.4174 3.04384 31.816907 0.009329
2011-01-31 08:08:24 51°28.508 2°53.69 4.4132 3.04226 31.802884 -0.025495
2011-01-31 08:08:29 51°28.525 2°53.694 4.4174 3.04226 31.802884 -0.025495
2011-01-31 08:08:34 51°28.542 2°53.697 4.4142 3.040995 31.790817 0.009329
2011-01-31 08:08:39 51°28.559 2°53.7 4.4195 3.040469 31.788119 0.009329
2011-01-31 08:08:44 51°28.576 2°53.703 4.4202 3.040574 31.792728 -0.025495
2011-01-31 08:08:49 51°28.593 2°53.706 4.4249 3.039731 31.783833 -0.025495
2011-01-31 08:08:53 51°28.607 2°53.708 4.4203 3.038994 31.776156 0.009329
2011-01-31 08:08:59 51°28.627 2°53.712 4.4174 3.038994 31.776156 0.009329
2011-01-31 08:09:04 51°28.645 2°53.715 4.4128 3.038256 31.771021 0.009329
2011-01-31 08:09:09 51°28.662 2°53.718 4.402 3.038572 31.774675 0.009329
2011-01-31 08:09:14 51°28.679 2°53.721 4.4003 3.038467 31.773457 0.009329
2011-01-31 08:09:19 51°28.696 2°53.725 4.3934 3.038362 31.772239 -0.025495
2011-01-31 08:09:24 51°28.713 2°53.728 4.3835 3.039205 31.780287 -0.025495
2011-01-31 08:09:29 51°28.73 2°53.732 4.38 3.039205 31.780287 -0.025495
2011-01-31 08:09:34 51°28.747 2°53.735 4.3724 3.039415 31.782723 0.009329
2011-01-31 08:09:39 51°28.764 2°53.738 4.3665 3.040153 31.788704 -0.025495
2011-01-31 08:09:44 51°28.782 2°53.74 4.3636 3.038678 31.775893 -0.025495
2011-01-31 08:09:49 51°28.799 2°53.743 4.3568 3.037835 31.772082 -0.025495
2011-01-31 08:09:54 51°28.816 2°53.746 4.3562 3.036676 31.764615 -0.025495
2011-01-31 08:09:59 51°28.833 2°53.749 4.3522 3.036676 31.764615 -0.025495
2011-01-31 08:10:04 51°28.85 2°53.752 4.3482 3.034675 31.7474 -0.025495
2011-01-31 08:10:09 51°28.867 2°53.755 4.3522 3.034043 31.748563 0.009329
2011-01-31 08:10:14 51°28.884 2°53.758 4.3481 3.032252 31.73632 0.009329
2011-01-31 08:10:19 51°28.902 2°53.762 4.3445 3.03025 31.719092 -0.060319
2011-01-31 08:10:24 51°28.919 2°53.765 4.3438 3.029407 31.713576 -0.025495
2011-01-31 08:10:29 51°28.936 2°53.768 4.3399 3.029407 31.713576 -0.025495
2011-01-31 08:10:34 51°28.953 2°53.771 4.3359 3.028881 31.712563 -0.025495
2011-01-31 08:10:39 51°28.97 2°53.774 4.333 3.028038 31.707045 0.009329
2011-01-31 08:10:44 51°28.988 2°53.777 4.3317 3.026985 31.699087 0.009329
2011-01-31 08:10:49 51°29.005 2°53.781 4.3309 3.026774 31.696648 -0.025495
2011-01-31 08:10:54 51°29.023 2°53.783 4.3298 3.024878 31.678087 -0.025495
2011-01-31 08:10:59 51°29.039 2°53.787 4.3329 3.024878 31.678087 -0.025495
2011-01-31 08:11:04 51°29.055 2°53.793 4.3312 3.024456 31.676595 -0.025495
2011-01-31 08:11:09 51°29.072 2°53.8 4.332 3.023087 31.664128 0.009329
2011-01-31 08:11:14 51°29.088 2°53.808 4.3289 3.022349 31.657283 -0.025495
2011-01-31 08:11:19 51°29.105 2°53.815 4.33 3.022665 31.663481 -0.025495
2011-01-31 08:11:24 51°29.121 2°53.823 4.3309 3.021085 31.649418 -0.060319
2011-01-31 08:11:29 51°29.137 2°53.832 4.3297 3.021085 31.649418 -0.060319
2011-01-31 08:11:34 51°29.153 2°53.84 4.3301 3.020243 31.640506 0.009329